Wetterdaten: Donnerstag, 02.11.2023
Datum Zeit Temp. Aussen Temp. o. S. Temp +5cm Feuchte Auss Luftdruck Regen Sonnenschein Regendauer Solar Windben Empfang
02.11.2023 00:00 10,2 C 9,4 C 6,1 C 90 % 995,0 hPa 0,0 l/m 0 min 0 min 0 W/m 9,7 km/h (2 Bft) 100,00 %
02.11.2023 00:05 10,2 C 9,4 C 6,1 C 90 % 994,9 hPa 0,0 l/m 0 min 0 min 0 W/m 12,9 km/h (3 Bft) 100,00 %
02.11.2023 00:10 10,2 C 9,4 C 6,1 C 90 % 994,6 hPa 0,0 l/m 0 min 0 min 0 W/m 12,9 km/h (3 Bft) 100,00 %
02.11.2023 00:15 10,1 C 9,4 C 6,1 C 91 % 994,6 hPa 0,0 l/m 0 min 0 min 0 W/m 12,9 km/h (3 Bft) 100,00 %
02.11.2023 00:20 10,1 C 9,4 C 6,1 C 91 % 994,5 hPa 0,0 l/m 0 min 0 min 0 W/m 16,1 km/h (3 Bft) 100,00 %
02.11.2023 00:25 10,1 C 9,4 C 6,1 C 91 % 994,4 hPa 0,0 l/m 0 min 0 min 0 W/m 16,1 km/h (3 Bft) 100,00 %
02.11.2023 00:30 10,0 C 8,9 C 6,1 C 91 % 994,3 hPa 0,0 l/m 0 min 0 min 0 W/m 12,9 km/h (3 Bft) 100,00 %
02.11.2023 00:35 9,9 C 8,9 C 6,1 C 91 % 994,2 hPa 0,0 l/m 0 min 0 min 0 W/m 6,4 km/h (2 Bft) 98,25 %
02.11.2023 00:40 9,9 C 8,9 C 6,1 C 92 % 994,2 hPa 0,0 l/m 0 min 0 min 0 W/m 16,1 km/h (3 Bft) 99,12 %
02.11.2023 00:45 9,9 C 8,9 C 6,1 C 92 % 994,1 hPa 0,0 l/m 0 min 0 min 0 W/m 12,9 km/h (3 Bft) 97,37 %
02.11.2023 00:50 9,9 C 8,9 C 6,1 C 92 % 994,0 hPa 0,0 l/m 0 min 0 min 0 W/m 12,9 km/h (3 Bft) 98,25 %
02.11.2023 00:55 9,9 C 8,9 C 6,1 C 92 % 993,9 hPa 0,0 l/m 0 min 0 min 0 W/m 22,5 km/h (4 Bft) 98,25 %
02.11.2023 01:00 9,9 C 9,4 C 6,1 C 92 % 993,8 hPa 0,0 l/m 0 min 0 min 0 W/m 16,1 km/h (3 Bft) 97,37 %
02.11.2023 01:05 9,9 C 9,4 C 6,1 C 92 % 993,6 hPa 0,0 l/m 0 min 0 min 0 W/m 19,3 km/h (3 Bft) 99,12 %
02.11.2023 01:10 9,9 C 9,4 C 6,1 C 92 % 993,6 hPa 0,0 l/m 0 min 0 min 0 W/m 16,1 km/h (3 Bft) 100,00 %
02.11.2023 01:15 10,0 C 9,4 C 6,1 C 92 % 993,6 hPa 0,0 l/m 0 min 0 min 0 W/m 12,9 km/h (3 Bft) 100,00 %
02.11.2023 01:20 10,1 C 9,4 C 6,7 C 93 % 993,4 hPa 0,0 l/m 0 min 0 min 0 W/m 16,1 km/h (3 Bft) 99,12 %
02.11.2023 01:25 10,1 C 9,4 C 6,7 C 93 % 993,3 hPa 0,0 l/m 0 min 0 min 0 W/m 12,9 km/h (3 Bft) 100,00 %
02.11.2023 01:30 10,1 C 9,4 C 6,7 C 93 % 993,0 hPa 0,0 l/m 0 min 0 min 0 W/m 16,1 km/h (3 Bft) 100,00 %
02.11.2023 01:35 10,2 C 9,4 C 6,7 C 92 % 992,9 hPa 0,0 l/m 0 min 0 min 0 W/m 22,5 km/h (4 Bft) 99,12 %
02.11.2023 01:40 10,2 C 9,4 C 6,7 C 92 % 992,6 hPa 0,0 l/m 0 min 0 min 0 W/m 25,7 km/h (4 Bft) 100,00 %
02.11.2023 01:45 10,3 C 10,0 C 6,7 C 92 % 992,5 hPa 0,0 l/m 0 min 0 min 0 W/m 25,7 km/h (4 Bft) 100,00 %
02.11.2023 01:50 10,3 C 10,0 C 6,7 C 92 % 992,3 hPa 0,0 l/m 0 min 0 min 0 W/m 16,1 km/h (3 Bft) 98,25 %
02.11.2023 01:55 10,4 C 10,0 C 6,7 C 92 % 992,3 hPa 0,0 l/m 0 min 0 min 0 W/m 16,1 km/h (3 Bft) 100,00 %
02.11.2023 02:00 10,4 C 10,0 C 6,7 C 91 % 992,0 hPa 0,0 l/m 0 min 0 min 0 W/m 19,3 km/h (3 Bft) 98,25 %
02.11.2023 02:05 10,4 C 10,0 C 6,7 C 91 % 991,9 hPa 0,0 l/m 0 min 0 min 0 W/m 19,3 km/h (3 Bft) 100,00 %
02.11.2023 02:10 10,4 C 10,0 C 6,7 C 91 % 991,7 hPa 0,0 l/m 0 min 0 min 0 W/m 32,2 km/h (5 Bft) 100,00 %
02.11.2023 02:15 10,6 C 10,0 C 6,7 C 91 % 991,5 hPa 0,0 l/m 0 min 0 min 0 W/m 22,5 km/h (4 Bft) 97,37 %
02.11.2023 02:20 10,6 C 10,0 C 6,7 C 90 % 991,4 hPa 0,0 l/m 0 min 0 min 0 W/m 19,3 km/h (3 Bft) 100,00 %
02.11.2023 02:25 10,7 C 10,0 C 7,2 C 90 % 991,2 hPa 0,0 l/m 0 min 0 min 0 W/m 22,5 km/h (4 Bft) 100,00 %
02.11.2023 02:30 10,8 C 10,0 C 7,2 C 90 % 991,2 hPa 0,0 l/m 0 min 0 min 0 W/m 25,7 km/h (4 Bft) 100,00 %
02.11.2023 02:35 10,8 C 10,6 C 7,2 C 89 % 991,0 hPa 0,0 l/m 0 min 0 min 0 W/m 22,5 km/h (4 Bft) 100,00 %
02.11.2023 02:40 10,9 C 10,6 C 7,2 C 89 % 991,0 hPa 0,0 l/m 0 min 0 min 0 W/m 25,7 km/h (4 Bft) 100,00 %
02.11.2023 02:45 10,9 C 10,6 C 7,2 C 89 % 990,9 hPa 0,0 l/m 0 min 0 min 0 W/m 22,5 km/h (4 Bft) 100,00 %
02.11.2023 02:50 11,0 C 10,6 C 7,2 C 88 % 990,8 hPa 0,0 l/m 0 min 0 min 0 W/m 22,5 km/h (4 Bft) 74,56 %
02.11.2023 02:55 11,1 C 10,6 C 7,2 C 88 % 990,7 hPa 0,0 l/m 0 min 0 min 0 W/m 19,3 km/h (3 Bft) 97,37 %
02.11.2023 03:00 11,1 C 10,6 C 7,2 C 88 % 990,6 hPa 0,0 l/m 0 min 0 min 0 W/m 19,3 km/h (3 Bft) 100,00 %
02.11.2023 03:05 11,1 C 10,6 C 7,2 C 88 % 990,3 hPa 0,0 l/m 0 min 0 min 0 W/m 19,3 km/h (3 Bft) 100,00 %
02.11.2023 03:10 11,1 C 10,6 C 7,2 C 88 % 990,0 hPa 0,0 l/m 0 min 0 min 0 W/m 19,3 km/h (3 Bft) 100,00 %
02.11.2023 03:15 11,1 C 10,6 C 7,2 C 87 % 989,7 hPa 0,0 l/m 0 min 0 min 0 W/m 22,5 km/h (4 Bft) 100,00 %
02.11.2023 03:20 11,1 C 10,6 C 7,2 C 87 % 989,6 hPa 0,0 l/m 0 min 0 min 0 W/m 16,1 km/h (3 Bft) 100,00 %
02.11.2023 03:25 11,1 C 10,6 C 7,2 C 88 % 989,4 hPa 0,0 l/m 0 min 0 min 0 W/m 16,1 km/h (3 Bft) 100,00 %
02.11.2023 03:30 11,1 C 10,6 C 7,2 C 87 % 989,1 hPa 0,0 l/m 0 min 0 min 0 W/m 19,3 km/h (3 Bft) 100,00 %
02.11.2023 03:35 11,1 C 10,6 C 7,2 C 87 % 989,0 hPa 0,0 l/m 0 min 0 min 0 W/m 22,5 km/h (4 Bft) 98,25 %
02.11.2023 03:40 11,1 C 10,6 C 7,2 C 87 % 989,0 hPa 0,0 l/m 0 min 0 min 0 W/m 19,3 km/h (3 Bft) 99,12 %
02.11.2023 03:45 11,1 C 10,6 C 7,2 C 87 % 988,6 hPa 0,0 l/m 0 min 0 min 0 W/m 22,5 km/h (4 Bft) 100,00 %
02.11.2023 03:50 11,2 C 10,6 C 7,2 C 87 % 988,3 hPa 0,0 l/m 0 min 0 min 0 W/m 22,5 km/h (4 Bft) 100,00 %
02.11.2023 03:55 11,2 C 10,6 C 7,2 C 87 % 988,1 hPa 0,0 l/m 0 min 0 min 0 W/m 16,1 km/h (3 Bft) 100,00 %
02.11.2023 04:00 11,2 C 10,6 C 7,2 C 87 % 988,2 hPa 0,0 l/m 0 min 0 min 0 W/m 25,7 km/h (4 Bft) 100,00 %
02.11.2023 04:05 11,2 C 10,6 C 7,2 C 87 % 988,0 hPa 0,0 l/m 0 min 0 min 0 W/m 25,7 km/h (4 Bft) 100,00 %
02.11.2023 04:10 11,2 C 10,6 C 7,2 C 87 % 987,6 hPa 0,0 l/m 0 min 0 min 0 W/m 25,7 km/h (4 Bft) 100,00 %
02.11.2023 04:15 11,2 C 10,6 C 7,2 C 87 % 987,5 hPa 0,0 l/m 0 min 0 min 0 W/m 22,5 km/h (4 Bft) 100,00 %
02.11.2023 04:20 11,2 C 10,6 C 7,2 C 87 % 987,2 hPa 0,0 l/m 0 min 0 min 0 W/m 25,7 km/h (4 Bft) 99,12 %
02.11.2023 04:25 11,3 C 10,6 C 7,2 C 87 % 987,2 hPa 0,0 l/m 0 min 0 min 0 W/m 19,3 km/h (3 Bft) 97,37 %
02.11.2023 04:30 11,3 C 10,6 C 7,2 C 87 % 986,8 hPa 0,0 l/m 0 min 0 min 0 W/m 25,7 km/h (4 Bft) 98,25 %
02.11.2023 04:35 11,3 C 10,6 C 7,2 C 87 % 986,5 hPa 0,0 l/m 0 min 0 min 0 W/m 29,0 km/h (5 Bft) 93,86 %
02.11.2023 04:40 11,3 C 10,6 C 7,2 C 87 % 986,1 hPa 0,0 l/m 0 min 5 min 0 W/m 25,7 km/h (4 Bft) 98,25 %
02.11.2023 04:45 11,4 C 10,6 C 7,2 C 87 % 986,1 hPa 0,0 l/m 0 min 0 min 0 W/m 41,8 km/h (6 Bft) 98,25 %
02.11.2023 04:50 11,4 C 10,6 C 7,2 C 87 % 985,8 hPa 0,0 l/m 0 min 0 min 0 W/m 25,7 km/h (4 Bft) 96,49 %
02.11.2023 04:55 11,4 C 10,6 C 7,2 C 87 % 985,6 hPa 0,0 l/m 0 min 0 min 0 W/m 35,4 km/h (5 Bft) 100,00 %
02.11.2023 05:00 11,3 C 10,6 C 7,2 C 87 % 985,4 hPa 0,0 l/m 0 min 0 min 0 W/m 25,7 km/h (4 Bft) 98,25 %
02.11.2023 05:05 11,4 C 10,6 C 7,2 C 86 % 985,4 hPa 0,0 l/m 0 min 0 min 0 W/m 25,7 km/h (4 Bft) 100,00 %
02.11.2023 05:10 11,4 C 10,6 C 7,2 C 86 % 985,2 hPa 0,0 l/m 0 min 0 min 0 W/m 29,0 km/h (5 Bft) 100,00 %
02.11.2023 05:15 11,4 C 10,6 C 7,2 C 86 % 984,8 hPa 0,0 l/m 0 min 5 min 0 W/m 38,6 km/h (5 Bft) 100,00 %
02.11.2023 05:20 11,4 C 10,6 C 7,2 C 85 % 984,7 hPa 0,0 l/m 0 min 0 min 0 W/m 41,8 km/h (6 Bft) 100,00 %
02.11.2023 05:25 11,4 C 10,6 C 7,2 C 85 % 984,0 hPa 0,0 l/m 0 min 0 min 0 W/m 35,4 km/h (5 Bft) 100,00 %
02.11.2023 05:30 11,4 C 11,1 C 7,2 C 85 % 983,6 hPa 0,0 l/m 0 min 0 min 0 W/m 35,4 km/h (5 Bft) 100,00 %
02.11.2023 05:35 11,5 C 10,6 C 7,2 C 85 % 980,9 hPa 0,0 l/m 0 min 0 min 0 W/m 38,6 km/h (5 Bft) 100,00 %
02.11.2023 05:40 11,4 C 10,6 C 7,2 C 84 % 981,1 hPa 0,0 l/m 0 min 0 min 0 W/m 41,8 km/h (6 Bft) 100,00 %
02.11.2023 05:45 11,5 C 10,6 C 7,2 C 84 % 981,6 hPa 0,0 l/m 0 min 0 min 0 W/m 41,8 km/h (6 Bft) 100,00 %
02.11.2023 05:50 11,5 C 11,1 C 7,2 C 84 % 982,8 hPa 0,0 l/m 0 min 0 min 0 W/m 35,4 km/h (5 Bft) 100,00 %
02.11.2023 05:55 11,5 C 11,1 C 7,2 C 84 % 982,2 hPa 0,0 l/m 0 min 0 min 0 W/m 32,2 km/h (5 Bft) 99,12 %
02.11.2023 06:00 11,6 C 11,1 C 7,2 C 83 % 981,9 hPa 0,0 l/m 0 min 0 min 0 W/m 41,8 km/h (6 Bft) 99,12 %
02.11.2023 06:05 11,6 C 11,1 C 7,2 C 83 % 981,4 hPa 0,0 l/m 0 min 0 min 0 W/m 41,8 km/h (6 Bft) 100,00 %
02.11.2023 06:10 11,6 C 11,1 C 7,2 C 83 % 981,0 hPa 0,0 l/m 0 min 0 min 0 W/m 38,6 km/h (5 Bft) 98,25 %
02.11.2023 06:15 11,6 C 11,1 C 7,2 C 83 % 980,8 hPa 0,0 l/m 0 min 0 min 0 W/m 25,7 km/h (4 Bft) 98,25 %
02.11.2023 06:20 11,6 C 11,1 C 7,2 C 83 % 980,8 hPa 0,0 l/m 0 min 0 min 0 W/m 25,7 km/h (4 Bft) 97,37 %
02.11.2023 06:25 11,6 C 11,1 C 7,2 C 83 % 981,1 hPa 0,0 l/m 0 min 0 min 0 W/m 51,5 km/h (7 Bft) 98,25 %
02.11.2023 06:30 11,6 C 11,1 C 7,2 C 83 % 980,6 hPa 0,0 l/m 0 min 0 min 0 W/m 38,6 km/h (5 Bft) 100,00 %
02.11.2023 06:35 11,6 C 11,1 C 7,2 C 83 % 980,6 hPa 0,0 l/m 0 min 0 min 0 W/m 29,0 km/h (5 Bft) 100,00 %
02.11.2023 06:40 11,6 C 11,1 C 7,2 C 83 % 980,5 hPa 0,0 l/m 0 min 0 min 0 W/m 35,4 km/h (5 Bft) 100,00 %
02.11.2023 06:45 11,6 C 11,1 C 7,2 C 83 % 980,5 hPa 0,0 l/m 0 min 0 min 0 W/m 38,6 km/h (5 Bft) 99,12 %
02.11.2023 06:50 11,7 C 11,1 C 7,2 C 83 % 980,3 hPa 0,0 l/m 0 min 0 min 0 W/m 38,6 km/h (5 Bft) 100,00 %
02.11.2023 06:55 11,7 C 11,1 C 7,2 C 83 % 980,5 hPa 0,0 l/m 0 min 0 min 0 W/m 35,4 km/h (5 Bft) 100,00 %
02.11.2023 07:04 11,7 C 11,1 C 7,2 C 83 % 980,8 hPa 0,0 l/m 0 min 0 min 0 W/m 38,6 km/h (5 Bft) 98,84 %
02.11.2023 07:05 11,7 C 11,1 C 7,2 C 83 % 980,8 hPa 0,0 l/m 0 min 0 min 0 W/m 38,6 km/h (5 Bft) 100,00 %
02.11.2023 07:08 11,7 C 11,1 C 7,2 C 83 % 981,0 hPa 0,0 l/m 0 min 0 min 0 W/m 45,1 km/h (6 Bft) 97,14 %
02.11.2023 07:10 11,7 C 11,1 C 7,2 C 83 % 981,1 hPa 0,0 l/m 0 min 0 min 0 W/m 29,0 km/h (5 Bft) 97,87 %
02.11.2023 07:12 11,7 C 11,1 C 7,2 C 83 % 981,0 hPa 0,0 l/m 0 min 0 min 0 W/m 22,5 km/h (4 Bft) 97,87 %
02.11.2023 07:14 11,7 C 11,1 C 7,2 C 83 % 980,9 hPa 0,0 l/m 0 min 0 min 0 W/m 29,0 km/h (5 Bft) 97,87 %
02.11.2023 07:16 11,7 C 11,1 C 7,2 C 83 % 980,6 hPa 0,0 l/m 0 min 0 min 0 W/m 41,8 km/h (6 Bft) 97,83 %
02.11.2023 07:18 11,7 C 11,1 C 7,2 C 84 % 980,7 hPa 0,0 l/m 0 min 0 min 0 W/m 41,8 km/h (6 Bft) 97,87 %
02.11.2023 07:20 11,7 C 11,1 C 7,2 C 84 % 980,8 hPa 0,0 l/m 0 min 0 min 0 W/m 22,5 km/h (4 Bft) 95,74 %
02.11.2023 07:22 11,7 C 11,1 C 7,2 C 84 % 981,0 hPa 0,0 l/m 0 min 0 min 0 W/m 45,1 km/h (6 Bft) 97,87 %
02.11.2023 07:24 11,8 C 11,1 C 7,8 C 84 % 981,1 hPa 0,0 l/m 0 min 0 min 0 W/m 25,7 km/h (4 Bft) 97,87 %
02.11.2023 07:26 11,8 C 11,1 C 7,8 C 84 % 981,0 hPa 0,0 l/m 0 min 0 min 0 W/m 22,5 km/h (4 Bft) 97,87 %
02.11.2023 07:28 11,8 C 11,1 C 7,8 C 84 % 981,2 hPa 0,0 l/m 0 min 0 min 0 W/m 35,4 km/h (5 Bft) 97,87 %
02.11.2023 07:30 11,9 C 11,1 C 7,8 C 83 % 981,1 hPa 0,0 l/m 0 min 0 min 0 W/m 29,0 km/h (5 Bft) 97,87 %
02.11.2023 07:32 11,9 C 11,1 C 7,8 C 83 % 980,9 hPa 0,0 l/m 0 min 0 min 0 W/m 22,5 km/h (4 Bft) 97,87 %
02.11.2023 07:34 11,9 C 11,1 C 7,8 C 83 % 981,0 hPa 0,0 l/m 0 min 0 min 0 W/m 16,1 km/h (3 Bft) 97,87 %
02.11.2023 07:36 11,9 C 11,1 C 7,8 C 83 % 981,3 hPa 0,0 l/m 0 min 0 min 0 W/m 25,7 km/h (4 Bft) 95,74 %
02.11.2023 07:38 11,9 C 11,1 C 7,8 C 83 % 981,3 hPa 0,0 l/m 0 min 0 min 0 W/m 25,7 km/h (4 Bft) 95,65 %
02.11.2023 07:40 11,9 C 11,1 C 7,8 C 83 % 981,2 hPa 0,0 l/m 0 min 2 min 0 W/m 29,0 km/h (5 Bft) 97,87 %
02.11.2023 07:42 11,9 C 11,1 C 7,8 C 84 % 981,1 hPa 0,0 l/m 0 min 0 min 0 W/m 29,0 km/h (5 Bft) 97,87 %
02.11.2023 07:44 11,9 C 11,1 C 7,8 C 84 % 981,1 hPa 0,0 l/m 0 min 0 min 0 W/m 22,5 km/h (4 Bft) 97,87 %
02.11.2023 07:46 11,9 C 11,1 C 7,8 C 84 % 981,1 hPa 0,0 l/m 0 min 0 min 0 W/m 22,5 km/h (4 Bft) 97,87 %
02.11.2023 07:48 11,8 C 11,1 C 7,8 C 84 % 981,1 hPa 0,0 l/m 0 min 0 min 0 W/m 19,3 km/h (3 Bft) 97,87 %
02.11.2023 07:50 11,8 C 11,1 C 7,8 C 84 % 981,1 hPa 0,0 l/m 0 min 0 min 0 W/m 45,1 km/h (6 Bft) 97,87 %
02.11.2023 07:52 11,8 C 11,1 C 7,8 C 84 % 980,9 hPa 0,0 l/m 0 min 0 min 0 W/m 25,7 km/h (4 Bft) 97,87 %
02.11.2023 07:54 11,8 C 11,1 C 7,8 C 85 % 980,9 hPa 0,0 l/m 0 min 0 min 0 W/m 38,6 km/h (5 Bft) 98,11 %
02.11.2023 07:56 11,9 C 11,1 C 7,8 C 85 % 980,9 hPa 0,0 l/m 0 min 0 min 0 W/m 25,7 km/h (4 Bft) 97,87 %
02.11.2023 07:58 11,9 C 11,1 C 7,8 C 85 % 981,0 hPa 0,0 l/m 0 min 0 min 5 W/m 16,1 km/h (3 Bft) 100,00 %
02.11.2023 08:00 11,9 C 11,1 C 7,8 C 85 % 980,9 hPa 0,0 l/m 0 min 0 min 7 W/m 16,1 km/h (3 Bft) 100,00 %
02.11.2023 08:02 11,9 C 11,1 C 7,2 C 85 % 980,8 hPa 0,0 l/m 0 min 2 min 10 W/m 29,0 km/h (5 Bft) 97,83 %
02.11.2023 08:04 11,9 C 11,1 C 7,2 C 85 % 980,8 hPa 0,0 l/m 0 min 0 min 12 W/m 22,5 km/h (4 Bft) 97,78 %
02.11.2023 08:06 11,8 C 11,1 C 7,2 C 86 % 981,0 hPa 0,0 l/m 0 min 0 min 13 W/m 25,7 km/h (4 Bft) 95,74 %
02.11.2023 08:08 11,8 C 11,1 C 7,2 C 86 % 980,7 hPa 0,0 l/m 0 min 0 min 14 W/m 22,5 km/h (4 Bft) 100,00 %
02.11.2023 08:10 11,7 C 11,1 C 7,2 C 87 % 980,7 hPa 0,0 l/m 0 min 2 min 14 W/m 25,7 km/h (4 Bft) 97,87 %
02.11.2023 08:12 11,7 C 11,1 C 7,2 C 87 % 980,6 hPa 0,0 l/m 0 min 0 min 10 W/m 25,7 km/h (4 Bft) 97,87 %
02.11.2023 08:14 11,7 C 10,6 C 7,2 C 87 % 980,6 hPa 0,0 l/m 0 min 0 min 8 W/m 19,3 km/h (3 Bft) 93,48 %
02.11.2023 08:16 11,6 C 10,6 C 7,2 C 88 % 980,5 hPa 0,0 l/m 0 min 0 min 11 W/m 19,3 km/h (3 Bft) 97,87 %
02.11.2023 08:18 11,6 C 10,6 C 7,2 C 88 % 980,4 hPa 0,0 l/m 0 min 0 min 13 W/m 25,7 km/h (4 Bft) 97,87 %
02.11.2023 08:20 11,6 C 10,6 C 7,2 C 88 % 980,5 hPa 0,0 l/m 0 min 0 min 14 W/m 22,5 km/h (4 Bft) 97,87 %
02.11.2023 08:22 11,6 C 10,6 C 7,2 C 88 % 980,5 hPa 0,0 l/m 0 min 0 min 16 W/m 19,3 km/h (3 Bft) 95,74 %
02.11.2023 08:24 11,5 C 10,6 C 7,2 C 88 % 980,4 hPa 0,0 l/m 0 min 0 min 16 W/m 19,3 km/h (3 Bft) 93,62 %
02.11.2023 08:26 11,5 C 10,6 C 7,2 C 89 % 980,2 hPa 0,0 l/m 0 min 0 min 21 W/m 16,1 km/h (3 Bft) 95,74 %
02.11.2023 08:28 11,4 C 10,6 C 7,2 C 89 % 980,2 hPa 0,0 l/m 0 min 0 min 17 W/m 19,3 km/h (3 Bft) 95,74 %
02.11.2023 08:30 11,4 C 10,6 C 7,2 C 89 % 980,1 hPa 0,0 l/m 0 min 0 min 16 W/m 16,1 km/h (3 Bft) 95,74 %
02.11.2023 08:32 11,4 C 10,6 C 7,2 C 89 % 980,1 hPa 0,0 l/m 0 min 0 min 15 W/m 22,5 km/h (4 Bft) 93,62 %
02.11.2023 08:34 11,4 C 10,6 C 7,2 C 89 % 980,1 hPa 0,0 l/m 0 min 0 min 11 W/m 19,3 km/h (3 Bft) 95,65 %
02.11.2023 08:36 11,4 C 10,6 C 7,2 C 89 % 980,1 hPa 0,0 l/m 0 min 0 min 10 W/m 35,4 km/h (5 Bft) 91,49 %
02.11.2023 08:38 11,4 C 10,6 C 7,2 C 89 % 979,9 hPa 0,0 l/m 0 min 0 min 8 W/m 29,0 km/h (5 Bft) 95,74 %
02.11.2023 08:40 11,4 C 10,6 C 7,2 C 89 % 979,8 hPa 0,0 l/m 0 min 0 min 10 W/m 16,1 km/h (3 Bft) 97,87 %
02.11.2023 08:42 11,4 C 10,6 C 7,2 C 89 % 979,7 hPa 0,0 l/m 0 min 0 min 10 W/m 16,1 km/h (3 Bft) 95,74 %
02.11.2023 08:44 11,4 C 10,6 C 7,2 C 89 % 979,7 hPa 0,0 l/m 0 min 0 min 8 W/m 25,7 km/h (4 Bft) 93,62 %
02.11.2023 08:46 11,4 C 10,6 C 7,2 C 89 % 979,6 hPa 0,0 l/m 0 min 0 min 5 W/m 22,5 km/h (4 Bft) 97,87 %
02.11.2023 08:48 11,4 C 11,1 C 7,2 C 90 % 979,6 hPa 0,0 l/m 0 min 0 min 7 W/m 22,5 km/h (4 Bft) 91,49 %
02.11.2023 08:50 11,5 C 11,1 C 7,2 C 90 % 979,7 hPa 0,0 l/m 0 min 0 min 11 W/m 25,7 km/h (4 Bft) 93,62 %
02.11.2023 08:52 11,6 C 11,1 C 7,2 C 90 % 979,6 hPa 0,0 l/m 0 min 0 min 18 W/m 25,7 km/h (4 Bft) 97,83 %
02.11.2023 08:54 11,6 C 11,1 C 7,8 C 89 % 979,5 hPa 0,0 l/m 0 min 0 min 19 W/m 29,0 km/h (5 Bft) 97,87 %
02.11.2023 08:56 11,7 C 11,7 C 7,8 C 89 % 979,6 hPa 0,0 l/m 0 min 0 min 16 W/m 25,7 km/h (4 Bft) 98,00 %
02.11.2023 08:58 11,7 C 11,7 C 7,8 C 89 % 979,5 hPa 0,0 l/m 0 min 0 min 11 W/m 22,5 km/h (4 Bft) 95,74 %
02.11.2023 09:00 11,8 C 11,7 C 7,8 C 89 % 979,6 hPa 0,0 l/m 0 min 0 min 7 W/m 32,2 km/h (5 Bft) 97,87 %
02.11.2023 09:02 11,9 C 11,7 C 7,8 C 88 % 979,7 hPa 0,0 l/m 0 min 0 min 8 W/m 25,7 km/h (4 Bft) 95,74 %
02.11.2023 09:04 11,9 C 11,7 C 7,8 C 88 % 979,7 hPa 0,0 l/m 0 min 0 min 12 W/m 32,2 km/h (5 Bft) 97,78 %
02.11.2023 09:08 12,0 C 11,7 C 7,8 C 88 % 979,7 hPa 0,0 l/m 0 min 0 min 16 W/m 35,4 km/h (5 Bft) 100,00 %
02.11.2023 09:10 12,0 C 11,7 C 7,8 C 88 % 979,6 hPa 0,0 l/m 0 min 0 min 20 W/m 25,7 km/h (4 Bft) 100,00 %
02.11.2023 09:12 12,1 C 11,7 C 7,8 C 88 % 979,7 hPa 0,0 l/m 0 min 0 min 22 W/m 22,5 km/h (4 Bft) 100,00 %
02.11.2023 09:14 12,1 C 11,7 C 7,8 C 88 % 979,6 hPa 0,0 l/m 0 min 0 min 25 W/m 22,5 km/h (4 Bft) 100,00 %
02.11.2023 09:16 12,1 C 11,7 C 7,8 C 87 % 979,6 hPa 0,0 l/m 0 min 0 min 21 W/m 19,3 km/h (3 Bft) 100,00 %
02.11.2023 09:18 12,1 C 11,7 C 7,8 C 87 % 979,5 hPa 0,0 l/m 0 min 0 min 16 W/m 25,7 km/h (4 Bft) 100,00 %
02.11.2023 09:20 12,1 C 11,7 C 7,8 C 87 % 979,5 hPa 0,0 l/m 0 min 0 min 13 W/m 19,3 km/h (3 Bft) 100,00 %
02.11.2023 09:22 12,1 C 11,7 C 7,8 C 87 % 979,4 hPa 0,0 l/m 0 min 0 min 12 W/m 25,7 km/h (4 Bft) 97,83 %
02.11.2023 09:24 12,1 C 11,7 C 7,8 C 87 % 979,4 hPa 0,0 l/m 0 min 0 min 14 W/m 22,5 km/h (4 Bft) 97,87 %
02.11.2023 09:26 12,1 C 11,7 C 7,8 C 87 % 979,2 hPa 0,0 l/m 0 min 0 min 27 W/m 25,7 km/h (4 Bft) 100,00 %
02.11.2023 09:28 12,1 C 11,7 C 7,8 C 87 % 979,1 hPa 0,0 l/m 0 min 0 min 48 W/m 22,5 km/h (4 Bft) 100,00 %
02.11.2023 09:30 12,1 C 11,7 C 7,8 C 87 % 979,1 hPa 0,0 l/m 0 min 0 min 70 W/m 19,3 km/h (3 Bft) 100,00 %
02.11.2023 09:32 12,1 C 11,7 C 7,8 C 87 % 979,1 hPa 0,0 l/m 0 min 0 min 91 W/m 19,3 km/h (3 Bft) 97,87 %
02.11.2023 09:34 12,1 C 11,7 C 7,8 C 87 % 979,0 hPa 0,0 l/m 0 min 0 min 85 W/m 29,0 km/h (5 Bft) 100,00 %
02.11.2023 09:36 12,2 C 11,7 C 7,8 C 87 % 978,8 hPa 0,0 l/m 0 min 0 min 70 W/m 25,7 km/h (4 Bft) 100,00 %
02.11.2023 09:38 12,2 C 11,7 C 7,8 C 87 % 978,8 hPa 0,0 l/m 0 min 0 min 54 W/m 32,2 km/h (5 Bft) 100,00 %
02.11.2023 09:40 12,2 C 11,7 C 7,8 C 87 % 978,8 hPa 0,0 l/m 0 min 0 min 39 W/m 25,7 km/h (4 Bft) 95,74 %
02.11.2023 09:42 12,2 C 11,7 C 7,8 C 87 % 978,8 hPa 0,0 l/m 0 min 0 min 32 W/m 29,0 km/h (5 Bft) 97,87 %
02.11.2023 09:44 12,2 C 11,7 C 7,8 C 87 % 978,6 hPa 0,0 l/m 0 min 0 min 58 W/m 29,0 km/h (5 Bft) 97,87 %
02.11.2023 09:46 12,2 C 12,2 C 7,8 C 87 % 978,6 hPa 0,0 l/m 0 min 0 min 67 W/m 29,0 km/h (5 Bft) 97,87 %
02.11.2023 09:48 12,2 C 12,2 C 7,8 C 87 % 978,6 hPa 0,0 l/m 0 min 0 min 81 W/m 25,7 km/h (4 Bft) 97,87 %
02.11.2023 09:50 12,3 C 12,2 C 7,8 C 87 % 978,5 hPa 0,0 l/m 2 min 0 min 145 W/m 35,4 km/h (5 Bft) 100,00 %
02.11.2023 09:52 12,3 C 12,8 C 8,3 C 87 % 978,5 hPa 0,0 l/m 2 min 0 min 157 W/m 41,8 km/h (6 Bft) 97,87 %
02.11.2023 09:54 12,4 C 12,8 C 8,3 C 87 % 978,5 hPa 0,0 l/m 2 min 0 min 203 W/m 22,5 km/h (4 Bft) 97,87 %
02.11.2023 09:56 12,4 C 12,8 C 8,3 C 87 % 978,5 hPa 0,0 l/m 2 min 0 min 241 W/m 29,0 km/h (5 Bft) 96,15 %
02.11.2023 09:58 12,4 C 12,8 C 8,3 C 87 % 978,4 hPa 0,0 l/m 2 min 0 min 155 W/m 19,3 km/h (3 Bft) 97,78 %
02.11.2023 10:00 12,4 C 12,2 C 8,3 C 87 % 978,5 hPa 0,0 l/m 0 min 0 min 99 W/m 25,7 km/h (4 Bft) 97,87 %
02.11.2023 10:02 12,4 C 12,2 C 8,3 C 87 % 978,5 hPa 0,0 l/m 0 min 0 min 41 W/m 25,7 km/h (4 Bft) 97,87 %
02.11.2023 10:04 12,4 C 12,2 C 8,3 C 87 % 978,6 hPa 0,0 l/m 0 min 0 min 60 W/m 22,5 km/h (4 Bft) 93,88 %
02.11.2023 10:08 12,4 C 11,7 C 8,3 C 87 % 978,9 hPa 0,0 l/m 0 min 0 min 56 W/m 29,0 km/h (5 Bft) 95,45 %
02.11.2023 10:09 12,4 C 11,7 C 8,3 C 87 % 978,8 hPa 0,0 l/m 0 min 0 min 46 W/m 19,3 km/h (3 Bft) 95,65 %
02.11.2023 10:12 12,4 C 12,2 C 8,3 C 87 % 978,8 hPa 0,0 l/m 0 min 0 min 71 W/m 25,7 km/h (4 Bft) 95,71 %
02.11.2023 10:14 12,4 C 12,2 C 8,3 C 87 % 978,7 hPa 0,0 l/m 0 min 0 min 82 W/m 25,7 km/h (4 Bft) 93,62 %
02.11.2023 10:16 12,5 C 12,2 C 8,3 C 87 % 978,7 hPa 0,0 l/m 0 min 0 min 76 W/m 22,5 km/h (4 Bft) 95,74 %
02.11.2023 10:18 12,5 C 12,2 C 8,3 C 87 % 978,7 hPa 0,0 l/m 0 min 0 min 38 W/m 32,2 km/h (5 Bft) 91,49 %
02.11.2023 10:20 12,6 C 12,2 C 8,3 C 87 % 978,6 hPa 0,0 l/m 0 min 0 min 34 W/m 25,7 km/h (4 Bft) 95,74 %
02.11.2023 10:22 12,5 C 12,2 C 8,3 C 87 % 978,6 hPa 0,0 l/m 0 min 0 min 43 W/m 29,0 km/h (5 Bft) 95,74 %
02.11.2023 10:24 12,6 C 12,2 C 8,3 C 87 % 978,6 hPa 0,0 l/m 0 min 0 min 48 W/m 32,2 km/h (5 Bft) 97,87 %
02.11.2023 10:26 12,6 C 12,2 C 8,3 C 87 % 978,6 hPa 0,0 l/m 0 min 0 min 65 W/m 19,3 km/h (3 Bft) 95,74 %
02.11.2023 10:28 12,6 C 12,2 C 8,3 C 87 % 978,4 hPa 0,0 l/m 0 min 0 min 68 W/m 25,7 km/h (4 Bft) 95,65 %
02.11.2023 10:30 12,6 C 12,2 C 8,3 C 87 % 978,4 hPa 0,0 l/m 0 min 0 min 71 W/m 29,0 km/h (5 Bft) 93,62 %
02.11.2023 10:32 12,7 C 12,2 C 8,3 C 87 % 978,5 hPa 0,0 l/m 0 min 0 min 78 W/m 25,7 km/h (4 Bft) 95,74 %
02.11.2023 10:34 12,7 C 12,2 C 8,3 C 87 % 978,4 hPa 0,0 l/m 0 min 0 min 79 W/m 25,7 km/h (4 Bft) 95,74 %
02.11.2023 10:36 12,7 C 12,2 C 8,3 C 87 % 978,5 hPa 0,0 l/m 0 min 0 min 74 W/m 22,5 km/h (4 Bft) 95,74 %
02.11.2023 10:38 12,7 C 12,2 C 8,3 C 87 % 978,5 hPa 0,0 l/m 0 min 0 min 77 W/m 16,1 km/h (3 Bft) 97,87 %
02.11.2023 10:40 12,7 C 12,2 C 8,3 C 87 % 978,5 hPa 0,0 l/m 0 min 0 min 60 W/m 12,9 km/h (3 Bft) 97,87 %
02.11.2023 10:42 12,8 C 12,2 C 8,3 C 87 % 978,4 hPa 0,0 l/m 0 min 0 min 63 W/m 25,7 km/h (4 Bft) 100,00 %
02.11.2023 10:44 12,8 C 12,2 C 8,3 C 87 % 978,4 hPa 0,0 l/m 0 min 0 min 68 W/m 16,1 km/h (3 Bft) 97,87 %
02.11.2023 10:46 12,8 C 12,2 C 8,9 C 86 % 978,4 hPa 0,0 l/m 0 min 0 min 64 W/m 32,2 km/h (5 Bft) 100,00 %
02.11.2023 10:48 12,8 C 12,2 C 8,9 C 86 % 978,3 hPa 0,0 l/m 0 min 0 min 73 W/m 12,9 km/h (3 Bft) 97,87 %
02.11.2023 10:50 12,9 C 12,8 C 8,9 C 86 % 978,3 hPa 0,0 l/m 0 min 0 min 87 W/m 19,3 km/h (3 Bft) 100,00 %
02.11.2023 10:52 12,9 C 12,8 C 8,9 C 86 % 978,3 hPa 0,0 l/m 0 min 0 min 84 W/m 29,0 km/h (5 Bft) 97,87 %
02.11.2023 10:54 12,9 C 12,8 C 8,9 C 86 % 978,3 hPa 0,0 l/m 0 min 0 min 101 W/m 19,3 km/h (3 Bft) 100,00 %
02.11.2023 10:56 13,0 C 12,8 C 8,9 C 86 % 978,2 hPa 0,0 l/m 0 min 0 min 122 W/m 22,5 km/h (4 Bft) 100,00 %
02.11.2023 10:58 13,1 C 12,8 C 8,9 C 85 % 978,4 hPa 0,0 l/m 0 min 0 min 134 W/m 25,7 km/h (4 Bft) 97,87 %
02.11.2023 11:00 13,2 C 13,3 C 8,9 C 85 % 978,3 hPa 0,0 l/m 0 min 0 min 120 W/m 19,3 km/h (3 Bft) 97,87 %
02.11.2023 11:02 13,2 C 13,3 C 9,4 C 83 % 978,2 hPa 0,0 l/m 0 min 0 min 107 W/m 19,3 km/h (3 Bft) 100,00 %
02.11.2023 11:04 13,3 C 13,3 C 9,4 C 83 % 978,3 hPa 0,0 l/m 0 min 0 min 96 W/m 29,0 km/h (5 Bft) 97,96 %
02.11.2023 11:08 13,6 C 13,3 C 9,4 C 81 % 978,3 hPa 0,0 l/m 0 min 0 min 96 W/m 32,2 km/h (5 Bft) 98,95 %
02.11.2023 11:10 13,6 C 13,3 C 9,4 C 80 % 978,3 hPa 0,0 l/m 0 min 0 min 90 W/m 35,4 km/h (5 Bft) 100,00 %
02.11.2023 11:12 13,7 C 13,3 C 9,4 C 79 % 978,3 hPa 0,0 l/m 0 min 0 min 78 W/m 22,5 km/h (4 Bft) 94,83 %
02.11.2023 11:14 13,8 C 13,3 C 9,4 C 78 % 978,3 hPa 0,0 l/m 0 min 0 min 59 W/m 41,8 km/h (6 Bft) 97,14 %
02.11.2023 11:16 13,9 C 13,3 C 9,4 C 78 % 978,4 hPa 0,0 l/m 0 min 0 min 56 W/m 29,0 km/h (5 Bft) 98,00 %
02.11.2023 11:18 14,0 C 13,3 C 9,4 C 77 % 978,4 hPa 0,0 l/m 0 min 0 min 60 W/m 38,6 km/h (5 Bft) 97,87 %
02.11.2023 11:20 14,1 C 13,9 C 9,4 C 77 % 978,4 hPa 0,0 l/m 0 min 0 min 85 W/m 29,0 km/h (5 Bft) 97,83 %
02.11.2023 11:22 14,1 C 13,9 C 9,4 C 76 % 978,5 hPa 0,0 l/m 0 min 0 min 103 W/m 35,4 km/h (5 Bft) 97,87 %
02.11.2023 11:24 14,1 C 13,9 C 9,4 C 76 % 978,3 hPa 0,0 l/m 0 min 0 min 123 W/m 35,4 km/h (5 Bft) 95,74 %
02.11.2023 11:26 14,3 C 13,9 C 10,0 C 74 % 978,3 hPa 0,0 l/m 0 min 0 min 137 W/m 35,4 km/h (5 Bft) 97,87 %
02.11.2023 11:28 14,3 C 13,9 C 10,0 C 74 % 978,1 hPa 0,0 l/m 0 min 0 min 154 W/m 48,3 km/h (6 Bft) 97,87 %
02.11.2023 11:30 14,3 C 13,9 C 10,0 C 74 % 978,2 hPa 0,0 l/m 0 min 0 min 153 W/m 38,6 km/h (5 Bft) 95,74 %
02.11.2023 11:32 14,3 C 13,9 C 10,0 C 74 % 978,2 hPa 0,0 l/m 0 min 0 min 143 W/m 19,3 km/h (3 Bft) 97,87 %
02.11.2023 11:34 14,3 C 14,4 C 10,0 C 73 % 978,2 hPa 0,0 l/m 0 min 0 min 161 W/m 29,0 km/h (5 Bft) 95,74 %
02.11.2023 11:36 14,4 C 14,4 C 10,0 C 73 % 978,1 hPa 0,0 l/m 0 min 0 min 171 W/m 25,7 km/h (4 Bft) 97,87 %
02.11.2023 11:38 14,5 C 14,4 C 10,0 C 73 % 978,0 hPa 0,0 l/m 0 min 0 min 156 W/m 38,6 km/h (5 Bft) 97,83 %
02.11.2023 11:40 14,6 C 14,4 C 10,0 C 73 % 978,0 hPa 0,0 l/m 0 min 0 min 136 W/m 45,1 km/h (6 Bft) 97,87 %
02.11.2023 11:42 14,6 C 14,4 C 10,0 C 73 % 978,0 hPa 0,0 l/m 0 min 0 min 100 W/m 22,5 km/h (4 Bft) 97,87 %
02.11.2023 11:44 14,6 C 14,4 C 10,0 C 72 % 978,0 hPa 0,0 l/m 0 min 0 min 73 W/m 19,3 km/h (3 Bft) 97,87 %
02.11.2023 11:46 14,6 C 13,9 C 10,0 C 72 % 977,9 hPa 0,0 l/m 0 min 0 min 90 W/m 35,4 km/h (5 Bft) 98,11 %
02.11.2023 11:48 14,6 C 13,9 C 10,0 C 72 % 977,8 hPa 0,0 l/m 0 min 0 min 76 W/m 25,7 km/h (4 Bft) 97,87 %
02.11.2023 11:50 14,6 C 13,9 C 10,0 C 73 % 977,8 hPa 0,0 l/m 0 min 0 min 80 W/m 25,7 km/h (4 Bft) 95,74 %
02.11.2023 11:52 14,6 C 13,9 C 10,0 C 72 % 977,9 hPa 0,0 l/m 0 min 0 min 117 W/m 22,5 km/h (4 Bft) 97,87 %
02.11.2023 11:54 14,6 C 14,4 C 10,0 C 72 % 977,9 hPa 0,0 l/m 0 min 0 min 152 W/m 32,2 km/h (5 Bft) 95,83 %
02.11.2023 11:56 14,6 C 14,4 C 10,0 C 71 % 977,8 hPa 0,0 l/m 0 min 0 min 158 W/m 48,3 km/h (6 Bft) 97,87 %
02.11.2023 11:58 14,7 C 14,4 C 10,0 C 72 % 977,8 hPa 0,0 l/m 0 min 0 min 152 W/m 29,0 km/h (5 Bft) 100,00 %
02.11.2023 12:00 14,7 C 14,4 C 10,0 C 71 % 977,6 hPa 0,0 l/m 0 min 0 min 129 W/m 25,7 km/h (4 Bft) 95,74 %
02.11.2023 12:02 14,9 C 14,4 C 10,6 C 71 % 977,6 hPa 0,0 l/m 0 min 0 min 131 W/m 22,5 km/h (4 Bft) 97,87 %
02.11.2023 12:04 15,0 C 15,0 C 10,6 C 71 % 977,6 hPa 0,0 l/m 0 min 0 min 120 W/m 35,4 km/h (5 Bft) 100,00 %
02.11.2023 12:08 15,2 C 15,0 C 10,6 C 70 % 977,4 hPa 0,0 l/m 0 min 0 min 104 W/m 48,3 km/h (6 Bft) 96,23 %
02.11.2023 12:10 15,2 C 15,0 C 10,6 C 70 % 977,4 hPa 0,0 l/m 0 min 0 min 85 W/m 25,7 km/h (4 Bft) 95,74 %
02.11.2023 12:12 15,3 C 15,0 C 10,6 C 70 % 977,3 hPa 0,0 l/m 0 min 0 min 84 W/m 29,0 km/h (5 Bft) 97,83 %
02.11.2023 12:16 15,3 C 15,0 C 10,6 C 69 % 977,2 hPa 0,0 l/m 0 min 0 min 70 W/m 54,7 km/h (7 Bft) 96,81 %
02.11.2023 12:18 15,4 C 15,0 C 10,6 C 68 % 977,3 hPa 0,0 l/m 0 min 0 min 62 W/m 35,4 km/h (5 Bft) 97,87 %
02.11.2023 12:20 15,4 C 15,0 C 10,6 C 68 % 977,3 hPa 0,0 l/m 0 min 0 min 56 W/m 57,9 km/h (7 Bft) 95,74 %
02.11.2023 12:22 15,4 C 15,0 C 10,6 C 68 % 977,4 hPa 0,0 l/m 0 min 0 min 54 W/m 70,8 km/h (8 Bft) 95,74 %
02.11.2023 12:24 15,5 C 15,0 C 10,6 C 66 % 977,2 hPa 0,0 l/m 0 min 0 min 57 W/m 61,2 km/h (7 Bft) 95,74 %
02.11.2023 12:26 15,6 C 15,0 C 10,6 C 67 % 977,5 hPa 0,0 l/m 0 min 0 min 67 W/m 29,0 km/h (5 Bft) 97,14 %
02.11.2023 12:28 15,6 C 15,0 C 10,6 C 67 % 977,4 hPa 0,0 l/m 0 min 0 min 70 W/m 25,7 km/h (4 Bft) 96,61 %
02.11.2023 12:30 15,6 C 15,0 C 10,6 C 67 % 977,4 hPa 0,0 l/m 0 min 0 min 66 W/m 45,1 km/h (6 Bft) 97,14 %
02.11.2023 12:32 15,6 C 15,0 C 10,6 C 66 % 977,5 hPa 0,0 l/m 0 min 0 min 57 W/m 48,3 km/h (6 Bft) 97,87 %
02.11.2023 12:34 15,6 C 15,0 C 10,6 C 65 % 977,4 hPa 0,0 l/m 0 min 0 min 57 W/m 41,8 km/h (6 Bft) 93,48 %
02.11.2023 12:36 15,6 C 15,0 C 10,6 C 64 % 977,4 hPa 0,0 l/m 0 min 0 min 64 W/m 57,9 km/h (7 Bft) 93,62 %
02.11.2023 12:38 15,6 C 15,0 C 11,1 C 64 % 977,3 hPa 0,0 l/m 0 min 0 min 77 W/m 70,8 km/h (8 Bft) 95,74 %
02.11.2023 12:40 15,6 C 15,0 C 10,6 C 62 % 977,2 hPa 0,0 l/m 0 min 0 min 70 W/m 80,5 km/h (9 Bft) 93,62 %
02.11.2023 12:42 15,6 C 15,0 C 10,6 C 63 % 977,5 hPa 0,0 l/m 0 min 0 min 100 W/m 51,5 km/h (7 Bft) 97,87 %
02.11.2023 12:44 15,6 C 15,0 C 10,6 C 63 % 977,6 hPa 0,0 l/m 0 min 0 min 116 W/m 29,0 km/h (5 Bft) 97,87 %
02.11.2023 12:46 15,6 C 15,0 C 10,6 C 62 % 977,5 hPa 0,0 l/m 0 min 0 min 138 W/m 90,1 km/h (10 Bft) 91,49 %
02.11.2023 12:48 15,5 C 15,0 C 10,6 C 63 % 977,9 hPa 0,0 l/m 0 min 0 min 154 W/m 64,4 km/h (8 Bft) 97,87 %
02.11.2023 12:50 15,4 C 15,0 C 10,6 C 63 % 977,9 hPa 0,0 l/m 0 min 0 min 145 W/m 57,9 km/h (7 Bft) 95,74 %
02.11.2023 12:52 15,4 C 15,0 C 10,6 C 63 % 977,9 hPa 0,0 l/m 0 min 0 min 127 W/m 90,1 km/h (10 Bft) 91,49 %
02.11.2023 12:54 15,4 C 15,0 C 10,6 C 64 % 977,9 hPa 0,0 l/m 0 min 0 min 125 W/m 32,2 km/h (5 Bft) 93,48 %
02.11.2023 12:56 15,3 C 15,0 C 10,6 C 65 % 978,0 hPa 0,0 l/m 0 min 0 min 135 W/m 45,1 km/h (6 Bft) 96,00 %
02.11.2023 12:58 15,3 C 14,4 C 10,6 C 64 % 977,9 hPa 0,0 l/m 0 min 0 min 140 W/m 64,4 km/h (8 Bft) 93,62 %
02.11.2023 13:00 15,3 C 15,0 C 10,6 C 64 % 977,8 hPa 0,0 l/m 0 min 0 min 168 W/m 48,3 km/h (6 Bft) 97,87 %
02.11.2023 13:02 15,3 C 15,0 C 10,6 C 65 % 977,6 hPa 0,0 l/m 2 min 0 min 211 W/m 45,1 km/h (6 Bft) 95,65 %
02.11.2023 13:04 15,3 C 15,0 C 10,6 C 65 % 977,6 hPa 0,0 l/m 2 min 0 min 245 W/m 25,7 km/h (4 Bft) 97,83 %
02.11.2023 13:06 15,4 C 15,6 C 10,6 C 65 % 977,5 hPa 0,0 l/m 2 min 0 min 257 W/m 57,9 km/h (7 Bft) 96,92 %
02.11.2023 13:08 15,5 C 15,0 C 10,6 C 64 % 977,8 hPa 0,0 l/m 2 min 0 min 401 W/m 51,5 km/h (7 Bft) 94,29 %
02.11.2023 13:10 15,5 C 15,0 C 10,6 C 63 % 977,4 hPa 0,0 l/m 2 min 0 min 363 W/m 61,2 km/h (7 Bft) 97,87 %
02.11.2023 13:12 15,6 C 15,0 C 10,6 C 63 % 977,4 hPa 0,0 l/m 2 min 0 min 401 W/m 32,2 km/h (5 Bft) 97,87 %
02.11.2023 13:14 15,6 C 15,0 C 10,6 C 64 % 977,4 hPa 0,0 l/m 2 min 0 min 401 W/m 51,5 km/h (7 Bft) 95,74 %
02.11.2023 13:16 15,6 C 15,0 C 10,6 C 63 % 977,5 hPa 0,0 l/m 2 min 0 min 388 W/m 51,5 km/h (7 Bft) 97,83 %
02.11.2023 13:18 15,6 C 15,0 C 10,6 C 62 % 977,5 hPa 0,0 l/m 2 min 0 min 321 W/m 48,3 km/h (6 Bft) 97,87 %
02.11.2023 13:20 15,6 C 15,0 C 10,6 C 63 % 977,4 hPa 0,0 l/m 2 min 0 min 225 W/m 67,6 km/h (8 Bft) 97,87 %
02.11.2023 13:22 15,6 C 15,0 C 10,6 C 63 % 977,4 hPa 0,0 l/m 2 min 0 min 276 W/m 48,3 km/h (6 Bft) 97,87 %
02.11.2023 13:24 15,6 C 15,6 C 10,6 C 63 % 977,5 hPa 0,0 l/m 2 min 0 min 343 W/m 29,0 km/h (5 Bft) 97,87 %
02.11.2023 13:26 15,6 C 15,6 C 11,1 C 63 % 977,8 hPa 0,0 l/m 2 min 0 min 228 W/m 57,9 km/h (7 Bft) 97,87 %
02.11.2023 13:28 15,6 C 15,6 C 11,1 C 63 % 977,7 hPa 0,0 l/m 2 min 0 min 193 W/m 48,3 km/h (6 Bft) 97,87 %
02.11.2023 13:30 15,7 C 15,6 C 11,1 C 63 % 977,8 hPa 0,0 l/m 2 min 0 min 426 W/m 35,4 km/h (5 Bft) 100,00 %
02.11.2023 13:32 15,7 C 15,6 C 11,1 C 63 % 977,7 hPa 0,0 l/m 2 min 0 min 280 W/m 45,1 km/h (6 Bft) 97,87 %
02.11.2023 13:34 15,7 C 15,6 C 11,1 C 63 % 977,7 hPa 0,0 l/m 0 min 0 min 139 W/m 29,0 km/h (5 Bft) 93,48 %
02.11.2023 13:36 15,7 C 15,6 C 11,1 C 63 % 977,7 hPa 0,0 l/m 2 min 0 min 238 W/m 48,3 km/h (6 Bft) 97,87 %
02.11.2023 13:38 15,7 C 15,6 C 11,1 C 62 % 977,7 hPa 0,0 l/m 2 min 0 min 381 W/m 64,4 km/h (8 Bft) 97,87 %
02.11.2023 13:40 15,7 C 15,0 C 11,1 C 63 % 977,6 hPa 0,0 l/m 0 min 0 min 120 W/m 38,6 km/h (5 Bft) 100,00 %
02.11.2023 13:42 15,6 C 15,0 C 10,6 C 63 % 977,5 hPa 0,0 l/m 0 min 0 min 124 W/m 48,3 km/h (6 Bft) 97,87 %
02.11.2023 13:44 15,5 C 15,0 C 10,6 C 62 % 977,6 hPa 0,0 l/m 0 min 0 min 164 W/m 48,3 km/h (6 Bft) 97,87 %
02.11.2023 13:46 15,5 C 15,0 C 10,6 C 63 % 977,5 hPa 0,0 l/m 0 min 0 min 162 W/m 25,7 km/h (4 Bft) 100,00 %
02.11.2023 13:48 15,5 C 15,0 C 10,6 C 64 % 977,5 hPa 0,0 l/m 2 min 0 min 268 W/m 54,7 km/h (7 Bft) 100,00 %
02.11.2023 13:50 15,5 C 15,0 C 10,6 C 64 % 977,4 hPa 0,0 l/m 2 min 0 min 353 W/m 38,6 km/h (5 Bft) 100,00 %
02.11.2023 13:52 15,5 C 15,0 C 10,6 C 63 % 977,5 hPa 0,0 l/m 0 min 0 min 123 W/m 51,5 km/h (7 Bft) 100,00 %
02.11.2023 13:54 15,4 C 15,0 C 10,6 C 63 % 977,3 hPa 0,0 l/m 0 min 0 min 102 W/m 51,5 km/h (7 Bft) 95,92 %
02.11.2023 13:56 15,4 C 15,0 C 10,6 C 64 % 977,4 hPa 0,0 l/m 0 min 0 min 137 W/m 45,1 km/h (6 Bft) 100,00 %
02.11.2023 13:58 15,4 C 15,0 C 10,6 C 64 % 977,5 hPa 0,0 l/m 0 min 0 min 137 W/m 38,6 km/h (5 Bft) 100,00 %
02.11.2023 14:00 15,3 C 15,0 C 10,6 C 64 % 977,6 hPa 0,0 l/m 0 min 0 min 140 W/m 29,0 km/h (5 Bft) 97,14 %
02.11.2023 14:02 15,3 C 15,0 C 10,6 C 64 % 977,5 hPa 0,0 l/m 0 min 0 min 138 W/m 54,7 km/h (7 Bft) 95,74 %
02.11.2023 14:04 15,3 C 14,4 C 10,6 C 63 % 977,6 hPa 0,0 l/m 0 min 0 min 122 W/m 77,2 km/h (9 Bft) 97,87 %
02.11.2023 14:06 15,3 C 15,0 C 10,6 C 63 % 977,4 hPa 0,0 l/m 2 min 0 min 179 W/m 38,6 km/h (5 Bft) 95,74 %
02.11.2023 14:08 15,3 C 15,0 C 10,6 C 63 % 977,4 hPa 0,0 l/m 0 min 0 min 153 W/m 51,5 km/h (7 Bft) 97,87 %
02.11.2023 14:10 15,3 C 15,0 C 10,6 C 63 % 977,3 hPa 0,0 l/m 0 min 0 min 115 W/m 51,5 km/h (7 Bft) 95,74 %
02.11.2023 14:12 15,3 C 14,4 C 10,6 C 63 % 977,4 hPa 0,0 l/m 0 min 0 min 129 W/m 67,6 km/h (8 Bft) 95,74 %
02.11.2023 14:14 15,3 C 15,0 C 10,6 C 63 % 977,2 hPa 0,0 l/m 0 min 0 min 148 W/m 45,1 km/h (6 Bft) 95,74 %
02.11.2023 14:16 15,3 C 15,0 C 10,6 C 63 % 977,3 hPa 0,0 l/m 2 min 0 min 292 W/m 45,1 km/h (6 Bft) 91,49 %
02.11.2023 14:18 15,3 C 15,0 C 10,6 C 62 % 977,3 hPa 0,0 l/m 2 min 0 min 354 W/m 45,1 km/h (6 Bft) 95,74 %
02.11.2023 14:20 15,3 C 15,0 C 10,6 C 62 % 977,4 hPa 0,0 l/m 2 min 0 min 343 W/m 41,8 km/h (6 Bft) 95,74 %
02.11.2023 14:22 15,3 C 14,4 C 10,6 C 62 % 977,2 hPa 0,0 l/m 0 min 0 min 136 W/m 45,1 km/h (6 Bft) 95,74 %
02.11.2023 14:24 15,3 C 14,4 C 10,6 C 63 % 977,2 hPa 0,0 l/m 0 min 0 min 125 W/m 45,1 km/h (6 Bft) 95,65 %
02.11.2023 14:26 15,3 C 14,4 C 10,6 C 62 % 977,2 hPa 0,0 l/m 2 min 0 min 338 W/m 77,2 km/h (9 Bft) 95,74 %
02.11.2023 14:28 15,2 C 14,4 C 10,6 C 62 % 977,2 hPa 0,0 l/m 0 min 0 min 100 W/m 74,0 km/h (8 Bft) 95,74 %
02.11.2023 14:30 15,2 C 14,4 C 10,6 C 63 % 977,2 hPa 0,0 l/m 0 min 0 min 78 W/m 25,7 km/h (4 Bft) 93,62 %
02.11.2023 14:32 15,2 C 14,4 C 10,6 C 63 % 977,3 hPa 0,0 l/m 0 min 0 min 123 W/m 54,7 km/h (7 Bft) 95,74 %
02.11.2023 14:34 15,2 C 14,4 C 10,6 C 62 % 977,2 hPa 0,0 l/m 0 min 0 min 143 W/m 74,0 km/h (8 Bft) 93,62 %
02.11.2023 14:36 15,2 C 14,4 C 10,6 C 63 % 977,3 hPa 0,0 l/m 0 min 0 min 129 W/m 41,8 km/h (6 Bft) 95,74 %
02.11.2023 14:38 15,2 C 14,4 C 10,6 C 62 % 977,2 hPa 0,0 l/m 0 min 0 min 124 W/m 35,4 km/h (5 Bft) 95,74 %
02.11.2023 14:40 15,2 C 15,0 C 10,6 C 63 % 977,2 hPa 0,0 l/m 2 min 0 min 183 W/m 32,2 km/h (5 Bft) 93,62 %
02.11.2023 14:42 15,2 C 15,6 C 10,6 C 63 % 977,2 hPa 0,0 l/m 2 min 0 min 260 W/m 45,1 km/h (6 Bft) 95,65 %
02.11.2023 14:44 15,2 C 15,0 C 10,6 C 62 % 977,2 hPa 0,0 l/m 2 min 0 min 266 W/m 90,1 km/h (10 Bft) 95,74 %
02.11.2023 14:46 15,3 C 15,0 C 10,6 C 62 % 977,2 hPa 0,0 l/m 2 min 0 min 285 W/m 38,6 km/h (5 Bft) 97,87 %
02.11.2023 14:48 15,3 C 15,0 C 10,6 C 62 % 977,1 hPa 0,0 l/m 2 min 0 min 274 W/m 48,3 km/h (6 Bft) 97,87 %
02.11.2023 14:50 15,4 C 15,0 C 10,6 C 62 % 977,2 hPa 0,0 l/m 2 min 0 min 244 W/m 41,8 km/h (6 Bft) 100,00 %
02.11.2023 14:52 15,4 C 15,0 C 10,6 C 61 % 977,2 hPa 0,0 l/m 2 min 0 min 220 W/m 35,4 km/h (5 Bft) 100,00 %
02.11.2023 14:54 15,4 C 15,0 C 10,6 C 61 % 977,2 hPa 0,0 l/m 0 min 0 min 98 W/m 67,6 km/h (8 Bft) 95,74 %
02.11.2023 14:56 15,4 C 15,0 C 10,6 C 62 % 977,0 hPa 0,0 l/m 0 min 0 min 100 W/m 41,8 km/h (6 Bft) 100,00 %
02.11.2023 14:58 15,4 C 15,0 C 10,6 C 62 % 977,2 hPa 0,0 l/m 2 min 0 min 176 W/m 35,4 km/h (5 Bft) 97,87 %
02.11.2023 15:00 15,4 C 15,0 C 10,6 C 62 % 977,2 hPa 0,0 l/m 2 min 0 min 131 W/m 41,8 km/h (6 Bft) 100,00 %
02.11.2023 15:02 15,4 C 15,0 C 10,6 C 62 % 977,2 hPa 0,0 l/m 0 min 0 min 122 W/m 38,6 km/h (5 Bft) 100,00 %
02.11.2023 15:04 15,3 C 14,4 C 10,6 C 62 % 977,3 hPa 0,0 l/m 0 min 0 min 64 W/m 45,1 km/h (6 Bft) 100,00 %
02.11.2023 15:10 15,2 C 14,4 C 10,6 C 62 % 977,3 hPa 0,0 l/m 0 min 0 min 85 W/m 57,9 km/h (7 Bft) 97,86 %
02.11.2023 15:12 15,2 C 14,4 C 10,6 C 62 % 977,2 hPa 0,0 l/m 0 min 0 min 55 W/m 51,5 km/h (7 Bft) 95,74 %
02.11.2023 15:14 15,1 C 14,4 C 10,0 C 62 % 977,3 hPa 0,0 l/m 0 min 0 min 65 W/m 51,5 km/h (7 Bft) 97,87 %
02.11.2023 15:16 15,1 C 14,4 C 10,0 C 62 % 977,3 hPa 0,0 l/m 0 min 0 min 81 W/m 70,8 km/h (8 Bft) 97,87 %
02.11.2023 15:18 15,0 C 14,4 C 10,0 C 62 % 977,2 hPa 0,0 l/m 0 min 0 min 112 W/m 38,6 km/h (5 Bft) 97,87 %
02.11.2023 15:20 15,0 C 14,4 C 10,0 C 63 % 977,3 hPa 0,0 l/m 0 min 0 min 71 W/m 41,8 km/h (6 Bft) 95,74 %
02.11.2023 15:22 14,9 C 14,4 C 10,0 C 64 % 977,4 hPa 0,0 l/m 0 min 0 min 72 W/m 38,6 km/h (5 Bft) 97,87 %
02.11.2023 15:24 14,9 C 14,4 C 10,0 C 64 % 977,3 hPa 0,0 l/m 0 min 0 min 72 W/m 38,6 km/h (5 Bft) 95,65 %
02.11.2023 15:26 14,9 C 14,4 C 10,0 C 64 % 977,3 hPa 0,0 l/m 0 min 0 min 78 W/m 45,1 km/h (6 Bft) 95,74 %
02.11.2023 15:28 14,9 C 14,4 C 10,0 C 64 % 977,2 hPa 0,0 l/m 0 min 0 min 83 W/m 54,7 km/h (7 Bft) 95,74 %
02.11.2023 15:30 14,8 C 14,4 C 10,0 C 64 % 977,2 hPa 0,0 l/m 0 min 0 min 50 W/m 32,2 km/h (5 Bft) 97,87 %
02.11.2023 15:32 14,8 C 13,9 C 10,0 C 64 % 977,1 hPa 0,0 l/m 0 min 0 min 48 W/m 35,4 km/h (5 Bft) 97,87 %
02.11.2023 15:34 14,8 C 13,9 C 10,0 C 64 % 977,1 hPa 0,0 l/m 0 min 0 min 52 W/m 25,7 km/h (4 Bft) 97,87 %
02.11.2023 15:36 14,7 C 13,9 C 10,0 C 64 % 977,2 hPa 0,0 l/m 0 min 0 min 53 W/m 38,6 km/h (5 Bft) 97,87 %
02.11.2023 15:38 14,7 C 13,9 C 10,0 C 65 % 977,3 hPa 0,0 l/m 0 min 0 min 47 W/m 29,0 km/h (5 Bft) 97,87 %
02.11.2023 15:40 14,7 C 13,9 C 10,0 C 64 % 977,1 hPa 0,0 l/m 0 min 0 min 38 W/m 57,9 km/h (7 Bft) 97,87 %
02.11.2023 15:42 14,7 C 13,9 C 10,0 C 64 % 977,3 hPa 0,0 l/m 0 min 0 min 41 W/m 51,5 km/h (7 Bft) 97,83 %
02.11.2023 15:44 14,6 C 13,9 C 10,0 C 65 % 977,3 hPa 0,0 l/m 0 min 0 min 44 W/m 38,6 km/h (5 Bft) 95,74 %
02.11.2023 15:46 14,6 C 13,9 C 10,0 C 65 % 977,3 hPa 0,0 l/m 0 min 0 min 38 W/m 32,2 km/h (5 Bft) 97,87 %
02.11.2023 15:48 14,6 C 13,9 C 10,0 C 65 % 977,3 hPa 0,0 l/m 0 min 0 min 31 W/m 48,3 km/h (6 Bft) 97,87 %
02.11.2023 15:50 14,6 C 13,9 C 10,0 C 65 % 977,3 hPa 0,0 l/m 0 min 0 min 31 W/m 48,3 km/h (6 Bft) 97,87 %
02.11.2023 15:52 14,6 C 13,9 C 10,0 C 65 % 977,3 hPa 0,0 l/m 0 min 0 min 27 W/m 45,1 km/h (6 Bft) 97,87 %
02.11.2023 15:54 14,5 C 13,9 C 10,0 C 65 % 977,4 hPa 0,0 l/m 0 min 0 min 29 W/m 35,4 km/h (5 Bft) 93,62 %
02.11.2023 15:56 14,5 C 13,9 C 10,0 C 65 % 977,4 hPa 0,0 l/m 0 min 0 min 36 W/m 32,2 km/h (5 Bft) 98,04 %
02.11.2023 15:58 14,4 C 13,9 C 10,0 C 65 % 977,4 hPa 0,0 l/m 0 min 0 min 38 W/m 54,7 km/h (7 Bft) 97,78 %
02.11.2023 16:00 14,4 C 13,9 C 10,0 C 65 % 977,4 hPa 0,0 l/m 0 min 0 min 39 W/m 29,0 km/h (5 Bft) 100,00 %
02.11.2023 16:02 14,4 C 13,9 C 9,4 C 65 % 977,4 hPa 0,0 l/m 0 min 0 min 44 W/m 32,2 km/h (5 Bft) 100,00 %
02.11.2023 16:04 14,3 C 13,9 C 9,4 C 65 % 977,4 hPa 0,0 l/m 0 min 0 min 39 W/m 45,1 km/h (6 Bft) 97,67 %
02.11.2023 16:06 14,3 C 13,9 C 9,4 C 65 % 977,6 hPa 0,0 l/m 0 min 0 min 37 W/m 35,4 km/h (5 Bft) 98,00 %
02.11.2023 16:08 14,3 C 13,9 C 9,4 C 65 % 977,6 hPa 0,0 l/m 0 min 0 min 35 W/m 41,8 km/h (6 Bft) 100,00 %
02.11.2023 16:10 14,3 C 13,9 C 9,4 C 65 % 977,6 hPa 0,0 l/m 0 min 0 min 30 W/m 54,7 km/h (7 Bft) 97,87 %
02.11.2023 16:12 14,3 C 13,3 C 9,4 C 65 % 977,6 hPa 0,0 l/m 0 min 0 min 27 W/m 25,7 km/h (4 Bft) 97,87 %
02.11.2023 16:14 14,3 C 13,3 C 9,4 C 66 % 977,6 hPa 0,0 l/m 0 min 0 min 24 W/m 19,3 km/h (3 Bft) 95,74 %
02.11.2023 16:16 14,3 C 13,3 C 9,4 C 66 % 977,6 hPa 0,0 l/m 0 min 0 min 18 W/m 25,7 km/h (4 Bft) 95,65 %
02.11.2023 16:18 14,3 C 13,3 C 9,4 C 66 % 977,6 hPa 0,0 l/m 0 min 0 min 17 W/m 22,5 km/h (4 Bft) 95,74 %
02.11.2023 16:20 14,3 C 13,3 C 9,4 C 66 % 977,8 hPa 0,0 l/m 0 min 0 min 14 W/m 54,7 km/h (7 Bft) 95,74 %
02.11.2023 16:22 14,2 C 13,3 C 9,4 C 66 % 977,8 hPa 0,0 l/m 0 min 0 min 20 W/m 29,0 km/h (5 Bft) 97,87 %
02.11.2023 16:24 14,2 C 13,3 C 9,4 C 66 % 977,8 hPa 0,0 l/m 0 min 0 min 27 W/m 35,4 km/h (5 Bft) 97,92 %
02.11.2023 16:26 14,2 C 13,3 C 9,4 C 67 % 977,7 hPa 0,0 l/m 0 min 0 min 21 W/m 41,8 km/h (6 Bft) 97,87 %
02.11.2023 16:28 14,1 C 13,3 C 9,4 C 66 % 977,8 hPa 0,0 l/m 0 min 0 min 17 W/m 29,0 km/h (5 Bft) 95,74 %
02.11.2023 16:30 14,1 C 13,3 C 9,4 C 66 % 977,8 hPa 0,0 l/m 0 min 0 min 13 W/m 29,0 km/h (5 Bft) 95,74 %
02.11.2023 16:32 14,1 C 13,3 C 9,4 C 66 % 977,7 hPa 0,0 l/m 0 min 0 min 12 W/m 19,3 km/h (3 Bft) 97,87 %
02.11.2023 16:34 14,0 C 13,3 C 9,4 C 67 % 977,6 hPa 0,0 l/m 0 min 0 min 11 W/m 29,0 km/h (5 Bft) 97,87 %
02.11.2023 16:36 13,9 C 13,3 C 9,4 C 67 % 977,7 hPa 0,0 l/m 0 min 0 min 11 W/m 32,2 km/h (5 Bft) 95,74 %
02.11.2023 16:38 13,9 C 12,8 C 9,4 C 67 % 977,8 hPa 0,0 l/m 0 min 0 min 9 W/m 45,1 km/h (6 Bft) 95,65 %
02.11.2023 16:40 13,9 C 12,8 C 8,9 C 67 % 977,8 hPa 0,0 l/m 0 min 0 min 9 W/m 38,6 km/h (5 Bft) 95,74 %
02.11.2023 16:42 13,8 C 12,8 C 8,9 C 68 % 977,8 hPa 0,0 l/m 0 min 0 min 7 W/m 25,7 km/h (4 Bft) 100,00 %
02.11.2023 16:44 13,8 C 12,8 C 8,9 C 68 % 977,7 hPa 0,0 l/m 0 min 0 min 7 W/m 25,7 km/h (4 Bft) 100,00 %
02.11.2023 16:46 13,8 C 12,8 C 8,9 C 68 % 977,7 hPa 0,0 l/m 0 min 0 min 7 W/m 22,5 km/h (4 Bft) 95,74 %
02.11.2023 16:48 13,8 C 12,8 C 8,9 C 68 % 977,7 hPa 0,0 l/m 0 min 0 min 7 W/m 25,7 km/h (4 Bft) 97,87 %
02.11.2023 16:50 13,7 C 12,8 C 8,9 C 68 % 977,8 hPa 0,0 l/m 0 min 0 min 7 W/m 32,2 km/h (5 Bft) 95,74 %
02.11.2023 16:52 13,7 C 12,8 C 8,9 C 67 % 977,8 hPa 0,0 l/m 0 min 0 min 7 W/m 29,0 km/h (5 Bft) 95,74 %
02.11.2023 16:54 13,7 C 12,8 C 8,9 C 67 % 978,0 hPa 0,0 l/m 0 min 0 min 6 W/m 25,7 km/h (4 Bft) 97,62 %
02.11.2023 16:56 13,7 C 12,8 C 8,9 C 67 % 977,8 hPa 0,0 l/m 0 min 0 min 5 W/m 35,4 km/h (5 Bft) 97,87 %
02.11.2023 16:58 13,7 C 12,8 C 8,9 C 67 % 977,9 hPa 0,0 l/m 0 min 0 min 5 W/m 25,7 km/h (4 Bft) 97,87 %
02.11.2023 17:00 13,6 C 12,8 C 8,9 C 67 % 977,8 hPa 0,0 l/m 0 min 0 min 5 W/m 25,7 km/h (4 Bft) 95,74 %
02.11.2023 17:02 13,6 C 12,8 C 8,9 C 67 % 977,8 hPa 0,0 l/m 0 min 0 min 0 W/m 38,6 km/h (5 Bft) 97,83 %
02.11.2023 17:04 13,6 C 12,8 C 8,9 C 66 % 977,8 hPa 0,0 l/m 0 min 0 min 0 W/m 19,3 km/h (3 Bft) 97,73 %
02.11.2023 17:06 13,6 C 12,8 C 8,9 C 66 % 977,8 hPa 0,0 l/m 0 min 0 min 0 W/m 25,7 km/h (4 Bft) 97,87 %
02.11.2023 17:08 13,6 C 12,8 C 8,9 C 66 % 977,8 hPa 0,0 l/m 0 min 0 min 0 W/m 32,2 km/h (5 Bft) 97,87 %
02.11.2023 17:10 13,6 C 12,8 C 8,9 C 66 % 977,8 hPa 0,0 l/m 0 min 0 min 0 W/m 29,0 km/h (5 Bft) 97,87 %
02.11.2023 17:12 13,6 C 12,8 C 8,9 C 66 % 977,8 hPa 0,0 l/m 0 min 0 min 0 W/m 25,7 km/h (4 Bft) 97,87 %
02.11.2023 17:14 13,6 C 12,8 C 8,9 C 66 % 977,8 hPa 0,0 l/m 0 min 0 min 0 W/m 29,0 km/h (5 Bft) 97,87 %
02.11.2023 17:16 13,6 C 12,8 C 8,9 C 66 % 977,8 hPa 0,0 l/m 0 min 0 min 0 W/m 22,5 km/h (4 Bft) 95,74 %
02.11.2023 17:18 13,6 C 12,8 C 8,9 C 66 % 977,6 hPa 0,0 l/m 0 min 0 min 0 W/m 29,0 km/h (5 Bft) 97,83 %
02.11.2023 17:20 13,6 C 12,8 C 8,9 C 66 % 977,8 hPa 0,0 l/m 0 min 0 min 0 W/m 22,5 km/h (4 Bft) 97,87 %
02.11.2023 17:22 13,6 C 12,8 C 8,9 C 65 % 977,7 hPa 0,0 l/m 0 min 0 min 0 W/m 29,0 km/h (5 Bft) 100,00 %
02.11.2023 17:24 13,7 C 12,8 C 8,9 C 65 % 977,9 hPa 0,0 l/m 0 min 0 min 0 W/m 54,7 km/h (7 Bft) 97,87 %
02.11.2023 17:26 13,7 C 12,8 C 8,9 C 64 % 977,8 hPa 0,0 l/m 0 min 0 min 0 W/m 32,2 km/h (5 Bft) 95,74 %
02.11.2023 17:32 13,7 C 12,8 C 8,9 C 64 % 978,0 hPa 0,0 l/m 0 min 0 min 0 W/m 54,7 km/h (7 Bft) 100,00 %
02.11.2023 17:34 13,7 C 12,8 C 8,9 C 64 % 978,0 hPa 0,0 l/m 0 min 0 min 0 W/m 32,2 km/h (5 Bft) 97,92 %
02.11.2023 17:36 13,8 C 12,8 C 8,9 C 64 % 978,1 hPa 0,0 l/m 0 min 0 min 0 W/m 41,8 km/h (6 Bft) 100,00 %
02.11.2023 17:38 13,8 C 12,8 C 8,9 C 64 % 978,2 hPa 0,0 l/m 0 min 0 min 0 W/m 35,4 km/h (5 Bft) 100,00 %
02.11.2023 17:40 13,7 C 12,8 C 8,9 C 64 % 978,2 hPa 0,0 l/m 0 min 0 min 0 W/m 57,9 km/h (7 Bft) 100,00 %
02.11.2023 17:42 13,7 C 12,8 C 8,9 C 64 % 978,2 hPa 0,0 l/m 0 min 0 min 0 W/m 29,0 km/h (5 Bft) 100,00 %
02.11.2023 17:44 13,7 C 12,8 C 8,9 C 64 % 978,2 hPa 0,0 l/m 0 min 0 min 0 W/m 35,4 km/h (5 Bft) 97,87 %
02.11.2023 17:46 13,6 C 12,8 C 8,9 C 64 % 978,5 hPa 0,0 l/m 0 min 0 min 0 W/m 51,5 km/h (7 Bft) 100,00 %
02.11.2023 17:48 13,6 C 12,8 C 8,9 C 64 % 978,5 hPa 0,0 l/m 0 min 0 min 0 W/m 32,2 km/h (5 Bft) 100,00 %
02.11.2023 17:50 13,6 C 12,8 C 8,9 C 64 % 978,4 hPa 0,0 l/m 0 min 0 min 0 W/m 25,7 km/h (4 Bft) 100,00 %
02.11.2023 17:52 13,5 C 12,8 C 8,9 C 64 % 978,5 hPa 0,0 l/m 0 min 0 min 0 W/m 35,4 km/h (5 Bft) 100,00 %
02.11.2023 17:54 13,5 C 12,8 C 8,9 C 64 % 978,5 hPa 0,0 l/m 0 min 0 min 0 W/m 38,6 km/h (5 Bft) 100,00 %
02.11.2023 17:56 13,4 C 12,8 C 8,9 C 64 % 978,5 hPa 0,0 l/m 0 min 0 min 0 W/m 38,6 km/h (5 Bft) 100,00 %
02.11.2023 17:58 13,4 C 12,2 C 8,9 C 65 % 978,5 hPa 0,0 l/m 0 min 0 min 0 W/m 22,5 km/h (4 Bft) 100,00 %
02.11.2023 18:00 13,4 C 12,2 C 8,9 C 65 % 978,7 hPa 0,0 l/m 0 min 0 min 0 W/m 22,5 km/h (4 Bft) 93,62 %
02.11.2023 18:02 13,3 C 12,2 C 8,9 C 65 % 978,7 hPa 0,0 l/m 0 min 0 min 0 W/m 29,0 km/h (5 Bft) 97,87 %
02.11.2023 18:04 13,3 C 12,2 C 8,9 C 65 % 978,7 hPa 0,0 l/m 0 min 0 min 0 W/m 22,5 km/h (4 Bft) 94,87 %
02.11.2023 18:08 13,3 C 12,2 C 8,9 C 65 % 979,0 hPa 0,0 l/m 0 min 0 min 0 W/m 29,0 km/h (5 Bft) 95,74 %
02.11.2023 18:10 13,2 C 12,2 C 8,9 C 65 % 979,0 hPa 0,0 l/m 0 min 0 min 0 W/m 35,4 km/h (5 Bft) 93,62 %
02.11.2023 18:12 13,3 C 12,2 C 8,9 C 65 % 979,1 hPa 0,0 l/m 0 min 0 min 0 W/m 35,4 km/h (5 Bft) 93,62 %
02.11.2023 18:16 13,2 C 12,2 C 8,9 C 65 % 979,1 hPa 0,0 l/m 0 min 0 min 0 W/m 25,7 km/h (4 Bft) 95,74 %
02.11.2023 18:18 13,3 C 12,2 C 8,9 C 65 % 979,1 hPa 0,0 l/m 0 min 0 min 0 W/m 19,3 km/h (3 Bft) 95,74 %
02.11.2023 18:20 13,3 C 12,2 C 8,9 C 65 % 979,2 hPa 0,0 l/m 0 min 0 min 0 W/m 19,3 km/h (3 Bft) 93,62 %
02.11.2023 18:22 13,2 C 12,2 C 8,9 C 65 % 979,2 hPa 0,0 l/m 0 min 0 min 0 W/m 19,3 km/h (3 Bft) 95,65 %
02.11.2023 18:24 13,2 C 12,2 C 8,3 C 65 % 979,2 hPa 0,0 l/m 0 min 0 min 0 W/m 16,1 km/h (3 Bft) 94,00 %
02.11.2023 18:26 13,2 C 12,2 C 8,3 C 65 % 979,3 hPa 0,0 l/m 0 min 0 min 0 W/m 25,7 km/h (4 Bft) 95,74 %
02.11.2023 18:28 13,2 C 12,2 C 8,3 C 65 % 979,3 hPa 0,0 l/m 0 min 0 min 0 W/m 25,7 km/h (4 Bft) 93,62 %
02.11.2023 18:30 13,2 C 12,2 C 8,9 C 65 % 979,2 hPa 0,0 l/m 0 min 0 min 0 W/m 16,1 km/h (3 Bft) 95,74 %
02.11.2023 18:32 13,2 C 12,2 C 8,3 C 65 % 979,3 hPa 0,0 l/m 0 min 0 min 0 W/m 22,5 km/h (4 Bft) 95,74 %
02.11.2023 18:34 13,2 C 12,2 C 8,3 C 66 % 979,2 hPa 0,0 l/m 0 min 0 min 0 W/m 38,6 km/h (5 Bft) 95,65 %
02.11.2023 18:36 13,2 C 12,2 C 8,3 C 66 % 979,2 hPa 0,0 l/m 0 min 0 min 0 W/m 25,7 km/h (4 Bft) 95,74 %
02.11.2023 18:38 13,2 C 12,2 C 8,3 C 66 % 979,2 hPa 0,0 l/m 0 min 0 min 0 W/m 19,3 km/h (3 Bft) 97,87 %
02.11.2023 18:40 13,1 C 12,2 C 8,3 C 66 % 979,2 hPa 0,0 l/m 0 min 0 min 0 W/m 22,5 km/h (4 Bft) 97,87 %
02.11.2023 18:42 13,1 C 12,2 C 8,3 C 66 % 979,2 hPa 0,0 l/m 0 min 0 min 0 W/m 25,7 km/h (4 Bft) 97,87 %
02.11.2023 18:44 13,1 C 12,2 C 8,3 C 66 % 979,3 hPa 0,0 l/m 0 min 0 min 0 W/m 22,5 km/h (4 Bft) 97,87 %
02.11.2023 18:46 13,1 C 12,2 C 8,3 C 66 % 979,3 hPa 0,0 l/m 0 min 0 min 0 W/m 25,7 km/h (4 Bft) 97,87 %
02.11.2023 18:48 13,1 C 12,2 C 8,3 C 66 % 979,3 hPa 0,0 l/m 0 min 0 min 0 W/m 35,4 km/h (5 Bft) 97,87 %
02.11.2023 18:50 13,1 C 12,2 C 8,3 C 66 % 979,4 hPa 0,0 l/m 0 min 0 min 0 W/m 19,3 km/h (3 Bft) 100,00 %
02.11.2023 18:52 13,0 C 12,2 C 8,3 C 66 % 979,4 hPa 0,0 l/m 0 min 0 min 0 W/m 25,7 km/h (4 Bft) 100,00 %
02.11.2023 18:54 13,0 C 12,2 C 8,3 C 66 % 979,4 hPa 0,0 l/m 0 min 0 min 0 W/m 22,5 km/h (4 Bft) 100,00 %
02.11.2023 18:56 12,9 C 12,2 C 8,3 C 66 % 979,5 hPa 0,0 l/m 0 min 0 min 0 W/m 22,5 km/h (4 Bft) 97,87 %
02.11.2023 18:58 12,9 C 12,2 C 8,3 C 66 % 979,5 hPa 0,0 l/m 0 min 0 min 0 W/m 38,6 km/h (5 Bft) 100,00 %
02.11.2023 19:00 12,8 C 11,7 C 8,3 C 67 % 979,5 hPa 0,0 l/m 0 min 0 min 0 W/m 35,4 km/h (5 Bft) 97,92 %
02.11.2023 19:02 12,8 C 12,2 C 8,3 C 67 % 979,5 hPa 0,0 l/m 0 min 0 min 0 W/m 57,9 km/h (7 Bft) 100,00 %
02.11.2023 19:04 12,8 C 12,2 C 8,3 C 67 % 979,5 hPa 0,0 l/m 0 min 0 min 0 W/m 25,7 km/h (4 Bft) 97,96 %
02.11.2023 19:07 12,8 C 12,2 C 8,3 C 67 % 979,5 hPa 0,0 l/m 0 min 0 min 0 W/m 32,2 km/h (5 Bft) 98,61 %
02.11.2023 19:08 12,8 C 12,2 C 8,3 C 67 % 979,6 hPa 0,0 l/m 0 min 0 min 0 W/m 16,1 km/h (3 Bft) 100,00 %
02.11.2023 19:12 12,7 C 11,7 C 7,8 C 67 % 979,5 hPa 0,0 l/m 0 min 0 min 0 W/m 16,1 km/h (3 Bft) 95,74 %
02.11.2023 19:14 12,7 C 11,7 C 7,8 C 67 % 979,5 hPa 0,0 l/m 0 min 0 min 0 W/m 35,4 km/h (5 Bft) 100,00 %
02.11.2023 19:16 12,7 C 11,7 C 7,8 C 67 % 979,5 hPa 0,0 l/m 0 min 0 min 0 W/m 29,0 km/h (5 Bft) 100,00 %
02.11.2023 19:18 12,7 C 11,7 C 7,8 C 67 % 979,5 hPa 0,0 l/m 0 min 0 min 0 W/m 32,2 km/h (5 Bft) 97,87 %
02.11.2023 19:20 12,7 C 11,7 C 7,8 C 67 % 979,6 hPa 0,0 l/m 0 min 0 min 0 W/m 41,8 km/h (6 Bft) 100,00 %
02.11.2023 19:22 12,6 C 11,7 C 7,8 C 67 % 979,5 hPa 0,0 l/m 0 min 0 min 0 W/m 19,3 km/h (3 Bft) 100,00 %
02.11.2023 19:24 12,6 C 11,7 C 7,8 C 67 % 979,6 hPa 0,0 l/m 0 min 0 min 0 W/m 25,7 km/h (4 Bft) 100,00 %
02.11.2023 19:26 12,6 C 11,7 C 7,8 C 67 % 979,6 hPa 0,0 l/m 0 min 0 min 0 W/m 22,5 km/h (4 Bft) 97,87 %
02.11.2023 19:32 12,6 C 11,7 C 7,8 C 67 % 979,5 hPa 0,0 l/m 0 min 0 min 0 W/m 19,3 km/h (3 Bft) 97,30 %
02.11.2023 19:34 12,5 C 11,7 C 7,8 C 67 % 979,5 hPa 0,0 l/m 0 min 0 min 0 W/m 32,2 km/h (5 Bft) 97,22 %
02.11.2023 19:36 12,5 C 11,7 C 7,8 C 67 % 979,6 hPa 0,0 l/m 0 min 0 min 0 W/m 32,2 km/h (5 Bft) 97,87 %
02.11.2023 19:38 12,5 C 11,7 C 7,8 C 67 % 979,5 hPa 0,0 l/m 0 min 0 min 0 W/m 25,7 km/h (4 Bft) 95,74 %
02.11.2023 19:40 12,5 C 11,7 C 7,8 C 67 % 979,6 hPa 0,0 l/m 0 min 0 min 0 W/m 45,1 km/h (6 Bft) 98,15 %
02.11.2023 19:42 12,5 C 11,7 C 7,8 C 67 % 979,6 hPa 0,0 l/m 0 min 0 min 0 W/m 32,2 km/h (5 Bft) 97,87 %
02.11.2023 19:44 12,5 C 11,7 C 7,8 C 67 % 979,8 hPa 0,0 l/m 0 min 0 min 0 W/m 29,0 km/h (5 Bft) 95,74 %
02.11.2023 19:46 12,5 C 11,7 C 7,8 C 67 % 979,6 hPa 0,0 l/m 0 min 0 min 0 W/m 22,5 km/h (4 Bft) 95,74 %
02.11.2023 19:48 12,5 C 11,7 C 7,8 C 67 % 979,8 hPa 0,0 l/m 0 min 0 min 0 W/m 19,3 km/h (3 Bft) 97,87 %
02.11.2023 19:50 12,5 C 11,7 C 7,8 C 67 % 979,7 hPa 0,0 l/m 0 min 0 min 0 W/m 25,7 km/h (4 Bft) 95,74 %
02.11.2023 19:52 12,5 C 11,7 C 7,8 C 67 % 979,8 hPa 0,0 l/m 0 min 0 min 0 W/m 32,2 km/h (5 Bft) 97,83 %
02.11.2023 19:54 12,5 C 11,7 C 7,8 C 67 % 979,8 hPa 0,0 l/m 0 min 0 min 0 W/m 29,0 km/h (5 Bft) 97,87 %
02.11.2023 19:56 12,6 C 11,7 C 7,8 C 67 % 979,9 hPa 0,0 l/m 0 min 0 min 0 W/m 19,3 km/h (3 Bft) 95,74 %
02.11.2023 19:58 12,6 C 11,7 C 7,8 C 67 % 979,9 hPa 0,0 l/m 0 min 0 min 0 W/m 22,5 km/h (4 Bft) 95,65 %
02.11.2023 20:00 12,6 C 11,7 C 7,8 C 67 % 979,9 hPa 0,0 l/m 0 min 0 min 0 W/m 41,8 km/h (6 Bft) 95,74 %
02.11.2023 20:02 12,6 C 11,7 C 7,8 C 67 % 979,9 hPa 0,0 l/m 0 min 0 min 0 W/m 29,0 km/h (5 Bft) 95,74 %
02.11.2023 20:04 12,6 C 11,7 C 7,8 C 67 % 979,9 hPa 0,0 l/m 0 min 0 min 0 W/m 38,6 km/h (5 Bft) 95,92 %
02.11.2023 20:06 12,6 C 11,7 C 7,8 C 67 % 979,9 hPa 0,0 l/m 0 min 0 min 0 W/m 41,8 km/h (6 Bft) 91,49 %
02.11.2023 20:08 12,6 C 11,7 C 7,8 C 67 % 979,9 hPa 0,0 l/m 0 min 0 min 0 W/m 32,2 km/h (5 Bft) 97,83 %
02.11.2023 20:10 12,6 C 11,7 C 8,3 C 67 % 980,0 hPa 0,0 l/m 0 min 0 min 0 W/m 29,0 km/h (5 Bft) 95,74 %
02.11.2023 20:12 12,7 C 12,2 C 8,3 C 67 % 980,0 hPa 0,0 l/m 0 min 0 min 0 W/m 35,4 km/h (5 Bft) 95,74 %
02.11.2023 20:14 12,7 C 11,7 C 8,3 C 67 % 979,9 hPa 0,0 l/m 0 min 0 min 0 W/m 35,4 km/h (5 Bft) 97,87 %
02.11.2023 20:16 12,7 C 11,7 C 8,3 C 67 % 980,0 hPa 0,0 l/m 0 min 0 min 0 W/m 29,0 km/h (5 Bft) 97,87 %
02.11.2023 20:18 12,7 C 11,7 C 8,3 C 67 % 980,0 hPa 0,0 l/m 0 min 0 min 0 W/m 51,5 km/h (7 Bft) 97,87 %
02.11.2023 20:20 12,7 C 11,7 C 8,3 C 67 % 980,0 hPa 0,0 l/m 0 min 0 min 0 W/m 22,5 km/h (4 Bft) 97,87 %
02.11.2023 20:22 12,6 C 11,7 C 7,8 C 67 % 980,0 hPa 0,0 l/m 0 min 0 min 0 W/m 29,0 km/h (5 Bft) 95,74 %
02.11.2023 20:24 12,6 C 11,7 C 7,8 C 67 % 980,1 hPa 0,0 l/m 0 min 0 min 0 W/m 22,5 km/h (4 Bft) 95,65 %
02.11.2023 20:26 12,6 C 11,7 C 7,8 C 67 % 980,1 hPa 0,0 l/m 0 min 0 min 0 W/m 29,0 km/h (5 Bft) 100,00 %
02.11.2023 20:28 12,6 C 11,7 C 7,8 C 67 % 980,1 hPa 0,0 l/m 0 min 0 min 0 W/m 32,2 km/h (5 Bft) 100,00 %
02.11.2023 20:30 12,6 C 11,7 C 7,8 C 67 % 980,1 hPa 0,0 l/m 0 min 0 min 0 W/m 32,2 km/h (5 Bft) 100,00 %
02.11.2023 20:32 12,6 C 11,7 C 7,8 C 68 % 980,1 hPa 0,0 l/m 0 min 0 min 0 W/m 35,4 km/h (5 Bft) 100,00 %
02.11.2023 20:34 12,5 C 11,7 C 7,8 C 68 % 980,0 hPa 0,0 l/m 0 min 0 min 0 W/m 35,4 km/h (5 Bft) 100,00 %
02.11.2023 20:36 12,5 C 11,7 C 7,8 C 68 % 980,1 hPa 0,0 l/m 0 min 0 min 0 W/m 38,6 km/h (5 Bft) 100,00 %
02.11.2023 20:38 12,4 C 11,7 C 7,8 C 68 % 980,0 hPa 0,0 l/m 0 min 0 min 0 W/m 19,3 km/h (3 Bft) 100,00 %
02.11.2023 20:40 12,3 C 11,7 C 7,8 C 68 % 980,0 hPa 0,0 l/m 0 min 0 min 0 W/m 22,5 km/h (4 Bft) 100,00 %
02.11.2023 20:42 12,3 C 11,1 C 7,8 C 69 % 980,0 hPa 0,0 l/m 0 min 0 min 0 W/m 12,9 km/h (3 Bft) 100,00 %
02.11.2023 20:44 12,3 C 11,1 C 7,8 C 69 % 980,1 hPa 0,0 l/m 0 min 0 min 0 W/m 16,1 km/h (3 Bft) 97,87 %
02.11.2023 20:46 12,2 C 11,1 C 7,8 C 69 % 980,1 hPa 0,0 l/m 0 min 0 min 0 W/m 16,1 km/h (3 Bft) 100,00 %
02.11.2023 20:48 12,1 C 11,1 C 7,8 C 69 % 980,2 hPa 0,0 l/m 0 min 0 min 0 W/m 19,3 km/h (3 Bft) 100,00 %
02.11.2023 20:50 12,1 C 11,1 C 7,8 C 69 % 980,2 hPa 0,0 l/m 0 min 0 min 0 W/m 22,5 km/h (4 Bft) 97,87 %
02.11.2023 20:52 12,1 C 11,1 C 7,8 C 70 % 980,1 hPa 0,0 l/m 0 min 0 min 0 W/m 22,5 km/h (4 Bft) 100,00 %
02.11.2023 20:54 12,1 C 11,1 C 7,8 C 70 % 980,2 hPa 0,0 l/m 0 min 0 min 0 W/m 25,7 km/h (4 Bft) 97,83 %
02.11.2023 20:56 12,0 C 11,1 C 7,8 C 70 % 980,1 hPa 0,0 l/m 0 min 0 min 0 W/m 25,7 km/h (4 Bft) 97,92 %
02.11.2023 20:58 12,0 C 11,1 C 7,2 C 70 % 980,1 hPa 0,0 l/m 0 min 0 min 0 W/m 29,0 km/h (5 Bft) 95,56 %
02.11.2023 21:00 12,0 C 11,1 C 7,2 C 70 % 980,1 hPa 0,0 l/m 0 min 0 min 0 W/m 22,5 km/h (4 Bft) 97,87 %
02.11.2023 21:02 12,0 C 11,1 C 7,2 C 70 % 980,2 hPa 0,0 l/m 0 min 0 min 0 W/m 45,1 km/h (6 Bft) 97,87 %
02.11.2023 21:04 11,9 C 11,1 C 7,2 C 70 % 980,1 hPa 0,0 l/m 0 min 0 min 0 W/m 41,8 km/h (6 Bft) 98,00 %
02.11.2023 21:08 11,9 C 11,1 C 7,2 C 70 % 980,2 hPa 0,0 l/m 0 min 0 min 0 W/m 51,5 km/h (7 Bft) 95,35 %
02.11.2023 21:09 11,9 C 11,1 C 7,2 C 70 % 980,2 hPa 0,0 l/m 0 min 0 min 0 W/m 38,6 km/h (5 Bft) 95,83 %
02.11.2023 21:10 11,8 C 11,1 C 7,2 C 70 % 980,2 hPa 0,0 l/m 0 min 0 min 0 W/m 51,5 km/h (7 Bft) 99,12 %
02.11.2023 21:14 11,9 C 11,1 C 7,2 C 70 % 980,1 hPa 0,0 l/m 0 min 0 min 0 W/m 19,3 km/h (3 Bft) 96,55 %
02.11.2023 21:16 11,9 C 11,1 C 7,2 C 70 % 980,1 hPa 0,0 l/m 0 min 0 min 0 W/m 38,6 km/h (5 Bft) 97,87 %
02.11.2023 21:18 11,9 C 11,1 C 7,2 C 70 % 980,0 hPa 0,0 l/m 0 min 0 min 0 W/m 29,0 km/h (5 Bft) 97,83 %
02.11.2023 21:20 11,9 C 11,1 C 7,2 C 70 % 980,1 hPa 0,0 l/m 0 min 0 min 0 W/m 25,7 km/h (4 Bft) 97,87 %
02.11.2023 21:22 11,9 C 11,1 C 7,2 C 70 % 980,0 hPa 0,0 l/m 0 min 0 min 0 W/m 41,8 km/h (6 Bft) 55,32 %
02.11.2023 21:24 11,9 C 11,1 C 7,2 C 70 % 980,1 hPa 0,0 l/m 0 min 0 min 0 W/m 29,0 km/h (5 Bft) 97,87 %
02.11.2023 21:26 11,9 C 11,1 C 7,2 C 70 % 980,0 hPa 0,0 l/m 0 min 0 min 0 W/m 35,4 km/h (5 Bft) 95,74 %
02.11.2023 21:28 11,8 C 11,1 C 7,2 C 71 % 980,1 hPa 0,0 l/m 0 min 0 min 0 W/m 25,7 km/h (4 Bft) 95,74 %
02.11.2023 21:30 11,8 C 11,1 C 7,2 C 71 % 980,1 hPa 0,0 l/m 0 min 0 min 0 W/m 22,5 km/h (4 Bft) 97,87 %
02.11.2023 21:32 11,8 C 11,1 C 7,2 C 71 % 980,1 hPa 0,0 l/m 0 min 0 min 0 W/m 41,8 km/h (6 Bft) 97,83 %
02.11.2023 21:34 11,8 C 11,1 C 7,2 C 72 % 980,1 hPa 0,0 l/m 0 min 0 min 0 W/m 41,8 km/h (6 Bft) 93,62 %
02.11.2023 21:36 11,8 C 11,1 C 7,2 C 72 % 980,2 hPa 0,0 l/m 0 min 0 min 0 W/m 29,0 km/h (5 Bft) 97,30 %
02.11.2023 21:38 11,8 C 11,1 C 7,2 C 72 % 980,2 hPa 0,0 l/m 0 min 0 min 0 W/m 41,8 km/h (6 Bft) 97,87 %
02.11.2023 21:40 11,7 C 11,1 C 7,2 C 72 % 980,2 hPa 0,0 l/m 0 min 0 min 0 W/m 51,5 km/h (7 Bft) 97,87 %
02.11.2023 21:42 11,8 C 11,1 C 7,2 C 72 % 980,2 hPa 0,0 l/m 0 min 0 min 0 W/m 35,4 km/h (5 Bft) 97,87 %
02.11.2023 21:44 11,7 C 11,1 C 7,2 C 72 % 980,1 hPa 0,0 l/m 0 min 0 min 0 W/m 38,6 km/h (5 Bft) 93,62 %
02.11.2023 21:46 11,7 C 11,1 C 7,2 C 72 % 980,3 hPa 0,0 l/m 0 min 0 min 0 W/m 29,0 km/h (5 Bft) 100,00 %
02.11.2023 21:48 11,7 C 11,1 C 7,2 C 72 % 980,4 hPa 0,0 l/m 0 min 0 min 0 W/m 35,4 km/h (5 Bft) 95,74 %
02.11.2023 21:50 11,7 C 11,1 C 7,2 C 72 % 980,2 hPa 0,0 l/m 0 min 0 min 0 W/m 22,5 km/h (4 Bft) 97,87 %
02.11.2023 21:52 11,7 C 11,1 C 7,2 C 72 % 980,4 hPa 0,0 l/m 0 min 0 min 0 W/m 54,7 km/h (7 Bft) 97,83 %
02.11.2023 21:54 11,7 C 11,1 C 7,2 C 72 % 980,3 hPa 0,0 l/m 0 min 0 min 0 W/m 38,6 km/h (5 Bft) 93,62 %
02.11.2023 21:56 11,7 C 11,1 C 7,2 C 73 % 980,3 hPa 0,0 l/m 0 min 0 min 0 W/m 25,7 km/h (4 Bft) 93,62 %
02.11.2023 21:58 11,6 C 11,1 C 7,2 C 73 % 980,3 hPa 0,0 l/m 0 min 0 min 0 W/m 38,6 km/h (5 Bft) 97,87 %
02.11.2023 22:00 11,6 C 10,6 C 7,2 C 73 % 980,2 hPa 0,0 l/m 0 min 0 min 0 W/m 32,2 km/h (5 Bft) 97,87 %
02.11.2023 22:02 11,6 C 10,6 C 7,2 C 73 % 980,2 hPa 0,0 l/m 0 min 0 min 0 W/m 32,2 km/h (5 Bft) 95,74 %
02.11.2023 22:04 11,6 C 10,6 C 7,2 C 72 % 980,3 hPa 0,0 l/m 0 min 0 min 0 W/m 35,4 km/h (5 Bft) 95,65 %
02.11.2023 22:08 11,5 C 10,6 C 7,2 C 72 % 980,4 hPa 0,0 l/m 0 min 0 min 0 W/m 45,1 km/h (6 Bft) 95,05 %
02.11.2023 22:09 11,5 C 10,6 C 7,2 C 72 % 980,3 hPa 0,0 l/m 0 min 0 min 0 W/m 41,8 km/h (6 Bft) 95,83 %
02.11.2023 22:10 11,4 C 10,6 C 7,2 C 72 % 980,3 hPa 0,0 l/m 0 min 0 min 0 W/m 54,7 km/h (7 Bft) 97,37 %
02.11.2023 22:14 11,4 C 10,6 C 7,2 C 72 % 980,4 hPa 0,0 l/m 0 min 0 min 0 W/m 45,1 km/h (6 Bft) 91,49 %
02.11.2023 22:16 11,4 C 10,6 C 7,2 C 72 % 980,3 hPa 0,0 l/m 0 min 0 min 0 W/m 32,2 km/h (5 Bft) 95,74 %
02.11.2023 22:18 11,3 C 10,6 C 7,2 C 72 % 980,3 hPa 0,0 l/m 0 min 0 min 0 W/m 32,2 km/h (5 Bft) 95,74 %
02.11.2023 22:20 11,3 C 10,6 C 7,2 C 72 % 980,3 hPa 0,0 l/m 0 min 0 min 0 W/m 19,3 km/h (3 Bft) 97,87 %
02.11.2023 22:22 11,3 C 10,6 C 7,2 C 72 % 980,3 hPa 0,0 l/m 0 min 0 min 0 W/m 45,1 km/h (6 Bft) 100,00 %
02.11.2023 22:24 11,3 C 10,6 C 7,2 C 72 % 980,3 hPa 0,0 l/m 0 min 0 min 0 W/m 25,7 km/h (4 Bft) 97,87 %
02.11.2023 22:26 11,2 C 10,6 C 6,7 C 73 % 980,2 hPa 0,0 l/m 0 min 0 min 0 W/m 22,5 km/h (4 Bft) 97,83 %
02.11.2023 22:28 11,2 C 10,6 C 6,7 C 73 % 980,3 hPa 0,0 l/m 0 min 0 min 0 W/m 38,6 km/h (5 Bft) 97,87 %
02.11.2023 22:30 11,2 C 10,6 C 6,7 C 73 % 980,3 hPa 0,0 l/m 0 min 0 min 0 W/m 32,2 km/h (5 Bft) 98,00 %
02.11.2023 22:32 11,2 C 10,6 C 6,7 C 73 % 980,3 hPa 0,0 l/m 0 min 0 min 0 W/m 19,3 km/h (3 Bft) 95,74 %
02.11.2023 22:34 11,2 C 10,6 C 6,7 C 73 % 980,3 hPa 0,0 l/m 0 min 0 min 0 W/m 35,4 km/h (5 Bft) 97,87 %
02.11.2023 22:36 11,2 C 10,6 C 6,7 C 73 % 980,4 hPa 0,0 l/m 0 min 0 min 0 W/m 35,4 km/h (5 Bft) 97,87 %
02.11.2023 22:38 11,1 C 10,6 C 6,7 C 74 % 980,3 hPa 0,0 l/m 0 min 0 min 0 W/m 25,7 km/h (4 Bft) 95,74 %
02.11.2023 22:40 11,1 C 10,6 C 6,7 C 74 % 980,4 hPa 0,0 l/m 0 min 0 min 0 W/m 29,0 km/h (5 Bft) 97,87 %
02.11.2023 22:42 11,1 C 10,6 C 6,7 C 74 % 980,3 hPa 0,0 l/m 0 min 0 min 0 W/m 32,2 km/h (5 Bft) 97,83 %
02.11.2023 22:44 11,1 C 10,6 C 6,7 C 74 % 980,3 hPa 0,0 l/m 0 min 0 min 0 W/m 29,0 km/h (5 Bft) 97,87 %
02.11.2023 22:46 11,1 C 10,6 C 6,7 C 75 % 980,3 hPa 0,0 l/m 0 min 0 min 0 W/m 22,5 km/h (4 Bft) 97,87 %
02.11.2023 22:48 11,1 C 10,6 C 6,7 C 75 % 980,2 hPa 0,0 l/m 0 min 0 min 0 W/m 22,5 km/h (4 Bft) 93,62 %
02.11.2023 22:50 11,1 C 10,6 C 6,7 C 75 % 980,2 hPa 0,0 l/m 0 min 0 min 0 W/m 22,5 km/h (4 Bft) 97,87 %
02.11.2023 22:52 11,1 C 10,6 C 6,7 C 76 % 980,3 hPa 0,0 l/m 0 min 0 min 0 W/m 29,0 km/h (5 Bft) 97,87 %
02.11.2023 22:54 11,1 C 10,6 C 6,7 C 76 % 980,2 hPa 0,0 l/m 0 min 0 min 0 W/m 35,4 km/h (5 Bft) 100,00 %
02.11.2023 22:56 11,0 C 10,0 C 6,7 C 76 % 980,1 hPa 0,0 l/m 0 min 0 min 0 W/m 29,0 km/h (5 Bft) 100,00 %
02.11.2023 22:58 11,0 C 10,0 C 6,7 C 76 % 980,3 hPa 0,0 l/m 0 min 0 min 0 W/m 25,7 km/h (4 Bft) 97,78 %
02.11.2023 23:00 11,0 C 10,0 C 6,7 C 77 % 980,2 hPa 0,0 l/m 0 min 0 min 0 W/m 22,5 km/h (4 Bft) 97,14 %
02.11.2023 23:02 10,9 C 10,0 C 6,7 C 77 % 980,2 hPa 0,0 l/m 0 min 0 min 0 W/m 25,7 km/h (4 Bft) 97,87 %
02.11.2023 23:04 10,9 C 10,0 C 6,7 C 77 % 980,2 hPa 0,0 l/m 0 min 2 min 0 W/m 25,7 km/h (4 Bft) 100,00 %
02.11.2023 23:05 10,9 C 10,0 C 6,7 C 77 % 980,2 hPa 0,0 l/m 0 min 0 min 0 W/m 48,3 km/h (6 Bft) 100,00 %
02.11.2023 23:10 10,8 C 10,0 C 6,1 C 79 % 980,3 hPa 0,0 l/m 0 min 5 min 0 W/m 38,6 km/h (5 Bft) 100,00 %
02.11.2023 23:15 10,7 C 9,4 C 5,6 C 81 % 980,4 hPa 0,0 l/m 0 min 5 min 0 W/m 41,8 km/h (6 Bft) 100,00 %
02.11.2023 23:20 10,6 C 9,4 C 5,6 C 82 % 980,3 hPa 0,0 l/m 0 min 5 min 0 W/m 35,4 km/h (5 Bft) 100,00 %
02.11.2023 23:25 10,4 C 9,4 C 5,6 C 82 % 980,3 hPa 0,0 l/m 0 min 5 min 0 W/m 41,8 km/h (6 Bft) 100,00 %
02.11.2023 23:30 10,4 C 9,4 C 5,0 C 82 % 980,2 hPa 0,0 l/m 0 min 5 min 0 W/m 38,6 km/h (5 Bft) 100,00 %
02.11.2023 23:35 10,3 C 9,4 C 5,0 C 83 % 980,3 hPa 0,0 l/m 0 min 5 min 0 W/m 41,8 km/h (6 Bft) 100,00 %
02.11.2023 23:40 10,2 C 9,4 C 5,0 C 83 % 980,4 hPa 0,0 l/m 0 min 5 min 0 W/m 32,2 km/h (5 Bft) 100,00 %
02.11.2023 23:45 10,2 C 8,9 C 4,4 C 83 % 980,4 hPa 0,2 l/m 0 min 5 min 0 W/m 45,1 km/h (6 Bft) 100,00 %
02.11.2023 23:50 10,1 C 9,4 C 4,4 C 84 % 980,5 hPa 0,0 l/m 0 min 5 min 0 W/m 45,1 km/h (6 Bft) 100,00 %
02.11.2023 23:55 10,1 C 8,9 C 4,4 C 84 % 980,6 hPa 0,0 l/m 0 min 5 min 0 W/m 35,4 km/h (5 Bft) 96,49 %
_ Min-Zeit 00:35 00:30 23:45 14:52 14:56 - - - - 00:35 21:22
Minimum _ 9,9 C 8,9 C 4,4 C 61 % 977,0 hPa - - - - 6,4 km/h (2 Bft) 55,32 %
_ Max-Zeit 13:30 13:06 12:38 01:20 00:00 23:45 09:50 04:40 13:30 12:46 00:00
Maximum _ 15,7 C 15,6 C 11,1 C 93 % 995,0 hPa 0,2 l/m 2 min 5 min 426 W/m 90,1 km/h
S (10 Bft)
100,00 %
Durchschnitt _ 12,5 C 11,8 C 8,1 C 77 % 981,7 hPa #0,2 l/m #1:18 h #1:08 h 96 W/m 31,5 km/h (5 Bft) 97,83 %
© 2023 W. Hausmann